Time,TemperatureF,DewpointF,PressureIn,WindDirection,WindDirectionDegrees,WindSpeedMPH,WindSpeedGustMPH,Humidity,HourlyPrecipIn,Conditions,Clouds,dailyrainin,SoftwareType,DateUTC
2013-02-25 00:00:00,42.9,26.5,30.00,NNW,329,0.0,4.0,52,0.00,,---,0.03,VWS V13.01,2013-02-25 05:00:00,
2013-02-25 00:05:00,42.7,26.3,30.00,NNW,329,0.0,0.0,52,0.00,,---,0.00,VWS V13.01,2013-02-25 05:05:00,
2013-02-25 00:10:00,42.5,26.1,30.01,NNW,329,0.0,0.0,52,0.00,,---,0.00,VWS V13.01,2013-02-25 05:10:00,
2013-02-25 00:15:00,42.3,25.9,30.01,NNW,329,0.0,0.0,52,0.00,,---,0.00,VWS V13.01,2013-02-25 05:15:00,
2013-02-25 00:16:00,42.3,25.9,30.01,NNW,329,0.0,0.0,52,0.00,,---,0.00,VWS V13.01,2013-02-25 05:16:00,
2013-02-25 00:20:00,42.2,26.8,30.01,NNW,329,0.0,1.0,54,0.00,,---,0.00,VWS V13.01,2013-02-25 05:20:00,
2013-02-25 00:21:00,42.1,26.7,30.00,NNW,329,0.0,1.0,54,0.00,,---,0.00,VWS V13.01,2013-02-25 05:21:00,
2013-02-25 00:25:00,41.9,26.5,30.01,NNW,329,0.0,1.0,54,0.00,,---,0.00,VWS V13.01,2013-02-25 05:25:00,
2013-02-25 00:26:00,41.9,26.5,30.01,NNW,329,0.0,1.0,54,0.00,,---,0.00,VWS V13.01,2013-02-25 05:26:00,
2013-02-25 00:30:00,41.7,26.7,30.01,NNW,329,0.0,1.0,55,0.00,,---,0.00,VWS V13.01,2013-02-25 05:30:00,
2013-02-25 00:31:00,41.7,26.7,30.01,NNW,329,0.0,1.0,55,0.00,,---,0.00,VWS V13.01,2013-02-25 05:31:00,
2013-02-25 00:32:00,41.6,26.6,30.01,NNW,329,2.0,4.0,55,0.00,,---,0.00,VWS V13.01,2013-02-25 05:32:00,
2013-02-25 00:35:00,41.4,26.0,30.01,NNW,329,0.0,4.0,54,0.00,,---,0.00,VWS V13.01,2013-02-25 05:35:00,
2013-02-25 00:36:00,41.4,26.0,30.01,NNW,329,0.0,4.0,54,0.00,,---,0.00,VWS V13.01,2013-02-25 05:36:00,
2013-02-25 00:37:00,41.3,25.9,30.01,NNW,329,0.0,4.0,54,0.00,,---,0.00,VWS V13.01,2013-02-25 05:37:00,
2013-02-25 00:40:00,41.2,25.8,30.01,NNW,329,0.0,4.0,54,0.00,,---,0.00,VWS V13.01,2013-02-25 05:40:00,
2013-02-25 00:41:00,41.1,25.7,30.01,NNW,329,3.0,4.0,54,0.00,,---,0.00,VWS V13.01,2013-02-25 05:41:00,
2013-02-25 00:42:00,41.1,25.7,30.01,NNW,329,0.0,4.0,54,0.00,,---,0.00,VWS V13.01,2013-02-25 05:42:00,
2013-02-25 00:45:00,40.9,26.0,30.01,NNW,329,0.0,4.0,55,0.00,,---,0.00,VWS V13.01,2013-02-25 05:45:00,
2013-02-25 00:46:00,40.9,26.0,30.01,NNW,329,0.0,4.0,55,0.00,,---,0.00,VWS V13.01,2013-02-25 05:46:00,
2013-02-25 00:47:00,40.8,25.9,30.01,NNW,329,0.0,4.0,55,0.00,,---,0.00,VWS V13.01,2013-02-25 05:47:00,
2013-02-25 00:50:00,40.7,25.8,30.01,NNW,329,0.0,4.0,55,0.00,,---,0.00,VWS V13.01,2013-02-25 05:50:00,
2013-02-25 00:51:00,40.6,25.7,30.01,NNW,329,0.0,4.0,55,0.00,,---,0.00,VWS V13.01,2013-02-25 05:51:00,
2013-02-25 00:53:00,40.5,25.6,30.01,NNW,329,0.0,4.0,55,0.00,,---,0.00,VWS V13.01,2013-02-25 05:53:00,
2013-02-25 00:55:00,40.5,26.0,30.01,NNW,329,0.0,4.0,56,0.00,,---,0.00,VWS V13.01,2013-02-25 05:55:00,
2013-02-25 00:56:00,40.4,25.5,30.01,NNW,329,3.0,4.0,55,0.00,,---,0.00,VWS V13.01,2013-02-25 05:56:00,
2013-02-25 00:59:00,40.3,25.4,30.01,NNW,329,0.0,4.0,55,0.00,,---,0.00,VWS V13.01,2013-02-25 05:59:00,
2013-02-25 01:00:00,40.2,25.3,30.01,NNW,329,0.0,4.0,55,0.00,,---,0.00,VWS V13.01,2013-02-25 06:00:00,
2013-02-25 01:01:00,40.2,25.3,30.01,NNW,329,0.0,0.0,55,0.00,,---,0.00,VWS V13.01,2013-02-25 06:01:00,
2013-02-25 01:04:00,40.1,25.7,30.01,NNW,329,0.0,4.0,56,0.00,,---,0.00,VWS V13.01,2013-02-25 06:04:00,
2013-02-25 01:06:00,40.1,25.7,30.01,NNW,329,0.0,4.0,56,0.00,,---,0.00,VWS V13.01,2013-02-25 06:06:00,
2013-02-25 01:09:00,39.9,25.9,30.01,NNW,329,1.0,5.0,57,0.00,,---,0.00,VWS V13.01,2013-02-25 06:09:00,
2013-02-25 01:11:00,39.9,25.9,30.01,NNW,335,3.0,7.0,57,0.00,,---,0.00,VWS V13.01,2013-02-25 06:11:00,
2013-02-25 01:14:00,39.8,25.8,30.01,NNW,335,0.0,7.0,57,0.00,,---,0.00,VWS V13.01,2013-02-25 06:14:00,
2013-02-25 01:16:00,39.8,25.8,30.01,NNW,334,0.0,7.0,57,0.00,,---,0.00,VWS V13.01,2013-02-25 06:16:00,
2013-02-25 01:19:00,39.8,25.8,30.01,NNW,334,0.0,7.0,57,0.00,,---,0.00,VWS V13.01,2013-02-25 06:19:00,
2013-02-25 01:21:00,39.7,25.7,30.01,NNW,336,2.0,7.0,57,0.00,,---,0.00,VWS V13.01,2013-02-25 06:21:00,
2013-02-25 01:22:00,39.7,25.7,30.01,NNW,336,0.0,7.0,57,0.00,,---,0.00,VWS V13.01,2013-02-25 06:22:00,
2013-02-25 01:24:00,39.7,25.7,30.01,NNW,336,0.0,7.0,57,0.00,,---,0.00,VWS V13.01,2013-02-25 06:24:00,
2013-02-25 01:26:00,39.7,25.7,30.01,NNW,336,0.0,7.0,57,0.00,,---,0.00,VWS V13.01,2013-02-25 06:26:00,
2013-02-25 01:27:00,39.7,25.7,30.01,NNW,336,0.0,7.0,57,0.00,,---,0.00,VWS V13.01,2013-02-25 06:27:00,
2013-02-25 01:30:00,39.6,25.6,30.02,NNW,336,0.0,7.0,57,0.00,,---,0.00,VWS V13.01,2013-02-25 06:30:00,
2013-02-25 01:31:00,39.6,25.6,30.02,NNW,336,0.0,0.0,57,0.00,,---,0.00,VWS V13.01,2013-02-25 06:31:00,
2013-02-25 01:32:00,39.6,25.6,30.02,NNW,336,0.0,0.0,57,0.00,,---,0.00,VWS V13.01,2013-02-25 06:32:00,
2013-02-25 01:35:00,39.5,25.5,30.02,NNW,336,0.0,0.0,57,0.00,,---,0.00,VWS V13.01,2013-02-25 06:35:00,
2013-02-25 01:36:00,39.5,25.5,30.02,NNW,336,0.0,1.0,57,0.00,,---,0.00,VWS V13.01,2013-02-25 06:36:00,
2013-02-25 01:37:00,39.5,25.5,30.02,NNW,336,0.0,1.0,57,0.00,,---,0.00,VWS V13.01,2013-02-25 06:37:00,
2013-02-25 01:40:00,39.5,25.5,30.02,NNW,336,0.0,1.0,57,0.00,,---,0.00,VWS V13.01,2013-02-25 06:40:00,
2013-02-25 01:41:00,39.4,25.5,30.02,NNW,336,0.0,1.0,57,0.00,,---,0.00,VWS V13.01,2013-02-25 06:41:00,
2013-02-25 01:42:00,39.4,25.5,30.02,NNW,336,0.0,1.0,57,0.00,,---,0.00,VWS V13.01,2013-02-25 06:42:00,
2013-02-25 01:46:00,39.3,25.4,30.02,NNW,336,0.0,1.0,57,0.00,,---,0.00,VWS V13.01,2013-02-25 06:46:00,
2013-02-25 01:47:00,39.3,25.4,30.02,NNW,336,0.0,1.0,57,0.00,,---,0.00,VWS V13.01,2013-02-25 06:47:00,
2013-02-25 01:51:00,39.3,25.8,30.02,NNW,336,0.0,1.0,58,0.00,,---,0.00,VWS V13.01,2013-02-25 06:51:00,
2013-02-25 01:52:00,39.3,25.8,30.02,NNW,336,0.0,1.0,58,0.00,,---,0.00,VWS V13.01,2013-02-25 06:52:00,
2013-02-25 01:56:00,39.1,25.6,30.02,NNW,336,1.0,1.0,58,0.00,,---,0.00,VWS V13.01,2013-02-25 06:56:00,
2013-02-25 01:57:00,39.1,25.6,30.03,NNW,336,0.0,1.0,58,0.00,,---,0.00,VWS V13.01,2013-02-25 06:57:00,
2013-02-25 02:01:00,38.9,25.4,30.03,NNW,336,0.0,0.0,58,0.00,,---,0.00,VWS V13.01,2013-02-25 07:01:00,
2013-02-25 02:02:00,38.9,25.4,30.04,NNW,336,0.0,0.0,58,0.00,,---,0.00,VWS V13.01,2013-02-25 07:02:00,
2013-02-25 02:07:00,38.8,25.7,30.03,NNW,336,0.0,1.0,59,0.00,,---,0.00,VWS V13.01,2013-02-25 07:07:00,
2013-02-25 02:12:00,38.7,25.6,30.03,NNW,336,0.0,3.0,59,0.00,,---,0.00,VWS V13.01,2013-02-25 07:12:00,
2013-02-25 02:13:00,38.6,25.5,30.03,NNW,336,0.0,3.0,59,0.00,,---,0.00,VWS V13.01,2013-02-25 07:13:00,
2013-02-25 02:17:00,38.6,25.5,30.03,NNW,336,0.0,3.0,59,0.00,,---,0.00,VWS V13.01,2013-02-25 07:17:00,
2013-02-25 02:18:00,38.5,25.4,30.03,NNW,336,0.0,3.0,59,0.00,,---,0.00,VWS V13.01,2013-02-25 07:18:00,
2013-02-25 02:22:00,38.5,25.8,30.04,NNW,336,0.0,3.0,60,0.00,,---,0.00,VWS V13.01,2013-02-25 07:22:00,
2013-02-25 02:23:00,38.4,25.7,30.04,NNW,336,0.0,3.0,60,0.00,,---,0.00,VWS V13.01,2013-02-25 07:23:00,
2013-02-25 02:27:00,38.4,26.1,30.03,NNW,336,0.0,3.0,61,0.00,,---,0.00,VWS V13.01,2013-02-25 07:27:00,
2013-02-25 02:28:00,38.4,26.1,30.03,NNW,336,4.0,4.0,61,0.00,,---,0.00,VWS V13.01,2013-02-25 07:28:00,
2013-02-25 02:32:00,38.2,26.0,30.03,NNW,336,0.0,4.0,61,0.00,,---,0.00,VWS V13.01,2013-02-25 07:32:00,
2013-02-25 02:33:00,38.2,26.0,30.03,NNW,336,0.0,4.0,61,0.00,,---,0.00,VWS V13.01,2013-02-25 07:33:00,
2013-02-25 02:34:00,38.2,26.0,30.03,NNW,336,0.0,4.0,61,0.00,,---,0.00,VWS V13.01,2013-02-25 07:34:00,
2013-02-25 02:37:00,38.2,26.0,30.03,NNW,336,0.0,4.0,61,0.00,,---,0.00,VWS V13.01,2013-02-25 07:37:00,
2013-02-25 02:38:00,38.2,26.0,30.03,NNW,336,0.0,4.0,61,0.00,,---,0.00,VWS V13.01,2013-02-25 07:38:00,
2013-02-25 02:39:00,38.2,26.0,30.03,NNW,336,0.0,4.0,61,0.00,,---,0.00,VWS V13.01,2013-02-25 07:39:00,
2013-02-25 02:42:00,38.1,25.9,30.03,NNW,336,0.0,4.0,61,0.00,,---,0.00,VWS V13.01,2013-02-25 07:42:00,
2013-02-25 02:43:00,38.1,25.9,30.03,NNW,336,0.0,4.0,61,0.00,,---,0.00,VWS V13.01,2013-02-25 07:43:00,
2013-02-25 02:44:00,38.0,25.8,30.03,NNW,336,0.0,4.0,61,0.00,,---,0.00,VWS V13.01,2013-02-25 07:44:00,
2013-02-25 02:47:00,38.0,25.8,30.02,NNW,336,0.0,4.0,61,0.00,,---,0.00,VWS V13.01,2013-02-25 07:47:00,
2013-02-25 02:48:00,38.0,25.8,30.02,NNW,336,0.0,4.0,61,0.00,,---,0.00,VWS V13.01,2013-02-25 07:48:00,
2013-02-25 02:49:00,38.0,25.8,30.02,NNW,336,0.0,4.0,61,0.00,,---,0.00,VWS V13.01,2013-02-25 07:49:00,
2013-02-25 02:52:00,37.9,25.7,30.03,NNW,346,0.0,6.0,61,0.00,,---,0.00,VWS V13.01,2013-02-25 07:52:00,
2013-02-25 02:53:00,37.9,25.7,30.03,NNW,348,1.0,6.0,61,0.00,,---,0.00,VWS V13.01,2013-02-25 07:53:00,
2013-02-25 02:54:00,37.9,25.7,30.03,North,350,0.0,6.0,61,0.00,,---,0.00,VWS V13.01,2013-02-25 07:54:00,
2013-02-25 02:57:00,37.9,25.7,30.03,North,5,0.0,7.0,61,0.00,,---,0.00,VWS V13.01,2013-02-25 07:57:00,
2013-02-25 02:58:00,37.9,25.7,30.03,North,5,0.0,7.0,61,0.00,,---,0.00,VWS V13.01,2013-02-25 07:58:00,
2013-02-25 02:59:00,37.9,25.7,30.03,NE,40,4.0,7.0,61,0.00,,---,0.00,VWS V13.01,2013-02-25 07:59:00,
2013-02-25 03:03:00,37.9,25.7,30.03,NNE,32,4.0,5.0,61,0.00,,---,0.00,VWS V13.01,2013-02-25 08:03:00,
2013-02-25 03:04:00,37.9,25.7,30.03,NE,53,3.0,10.0,61,0.00,,---,0.00,VWS V13.01,2013-02-25 08:04:00,
2013-02-25 03:08:00,38.0,25.8,30.03,ENE,68,6.0,11.0,61,0.00,,---,0.00,VWS V13.01,2013-02-25 08:08:00,
2013-02-25 03:09:00,38.0,25.8,30.03,NE,35,4.0,11.0,61,0.00,,---,0.00,VWS V13.01,2013-02-25 08:09:00,
2013-02-25 03:13:00,38.1,25.9,30.03,NE,36,4.0,11.0,61,0.00,,---,0.00,VWS V13.01,2013-02-25 08:13:00,
2013-02-25 03:14:00,38.2,26.0,30.03,NE,52,4.0,11.0,61,0.00,,---,0.00,VWS V13.01,2013-02-25 08:14:00,
2013-02-25 03:18:00,38.3,26.0,30.03,ENE,59,7.0,15.0,61,0.00,,---,0.00,VWS V13.01,2013-02-25 08:18:00,
2013-02-25 03:19:00,38.4,26.1,30.03,NE,55,1.0,15.0,61,0.00,,---,0.00,VWS V13.01,2013-02-25 08:19:00,
2013-02-25 03:23:00,38.6,26.3,30.03,NE,38,3.0,15.0,61,0.00,,---,0.00,VWS V13.01,2013-02-25 08:23:00,
2013-02-25 03:24:00,38.6,26.3,30.03,NE,34,1.0,15.0,61,0.00,,---,0.00,VWS V13.01,2013-02-25 08:24:00,
2013-02-25 03:28:00,38.6,26.7,30.03,NE,37,6.0,15.0,62,0.00,,---,0.00,VWS V13.01,2013-02-25 08:28:00,
2013-02-25 03:29:00,38.6,26.7,30.03,NE,37,1.0,15.0,62,0.00,,---,0.00,VWS V13.01,2013-02-25 08:29:00,
2013-02-25 03:33:00,38.7,26.8,30.04,ENE,68,6.0,9.0,62,0.00,,---,0.00,VWS V13.01,2013-02-25 08:33:00,
2013-02-25 03:34:00,38.7,26.8,30.04,ENE,73,6.0,9.0,62,0.00,,---,0.00,VWS V13.01,2013-02-25 08:34:00,
2013-02-25 03:35:00,38.7,26.8,30.04,East,87,0.0,9.0,62,0.00,,---,0.00,VWS V13.01,2013-02-25 08:35:00,
2013-02-25 03:39:00,38.6,26.7,30.04,ENE,70,11.0,11.0,62,0.00,,---,0.00,VWS V13.01,2013-02-25 08:39:00,
2013-02-25 03:40:00,38.6,26.7,30.04,ENE,65,3.0,11.0,62,0.00,,---,0.00,VWS V13.01,2013-02-25 08:40:00,
2013-02-25 03:44:00,38.5,27.0,30.04,ENE,67,5.0,13.0,63,0.00,,---,0.00,VWS V13.01,2013-02-25 08:44:00,
2013-02-25 03:45:00,38.5,27.0,30.04,ENE,67,0.0,13.0,63,0.00,,---,0.00,VWS V13.01,2013-02-25 08:45:00,
2013-02-25 03:49:00,38.4,26.9,30.04,ENE,57,3.0,13.0,63,0.00,,---,0.00,VWS V13.01,2013-02-25 08:49:00,
2013-02-25 03:50:00,38.3,27.2,30.04,ESE,106,6.0,13.0,64,0.00,,---,0.00,VWS V13.01,2013-02-25 08:50:00,
2013-02-25 03:54:00,38.2,27.1,30.04,NE,45,6.0,13.0,64,0.00,,---,0.00,VWS V13.01,2013-02-25 08:54:00,
2013-02-25 03:55:00,38.2,27.1,30.05,NE,45,4.0,13.0,64,0.00,,---,0.00,VWS V13.01,2013-02-25 08:55:00,
2013-02-25 03:59:00,38.0,26.9,30.05,NE,50,3.0,13.0,64,0.00,,---,0.00,VWS V13.01,2013-02-25 08:59:00,
2013-02-25 04:00:00,38.0,26.9,30.05,ENE,60,4.0,13.0,64,0.00,,---,0.00,VWS V13.01,2013-02-25 09:00:00,
2013-02-25 04:04:00,37.9,27.2,30.05,NNE,17,5.0,7.0,65,0.00,,---,0.00,VWS V13.01,2013-02-25 09:04:00,
2013-02-25 04:05:00,37.9,27.2,30.05,NE,49,3.0,7.0,65,0.00,,---,0.00,VWS V13.01,2013-02-25 09:05:00,
2013-02-25 04:09:00,37.7,27.0,30.06,NE,48,4.0,9.0,65,0.00,,---,0.00,VWS V13.01,2013-02-25 09:09:00,
2013-02-25 04:10:00,37.7,27.0,30.06,NE,48,0.0,9.0,65,0.00,,---,0.00,VWS V13.01,2013-02-25 09:10:00,
2013-02-25 04:14:00,37.5,26.8,30.06,ENE,58,1.0,13.0,65,0.00,,---,0.00,VWS V13.01,2013-02-25 09:14:00,
2013-02-25 04:15:00,37.5,26.8,30.06,East,84,4.0,13.0,65,0.00,,---,0.00,VWS V13.01,2013-02-25 09:15:00,
2013-02-25 04:16:00,37.5,26.8,30.06,ENE,69,0.0,13.0,65,0.00,,---,0.00,VWS V13.01,2013-02-25 09:16:00,
2013-02-25 04:20:00,37.4,27.1,30.05,NE,44,0.0,13.0,66,0.00,,---,0.00,VWS V13.01,2013-02-25 09:20:00,
2013-02-25 04:21:00,37.4,27.1,30.06,East,100,4.0,13.0,66,0.00,,---,0.00,VWS V13.01,2013-02-25 09:21:00,
2013-02-25 04:25:00,37.2,26.9,30.06,NE,46,5.0,13.0,66,0.00,,---,0.00,VWS V13.01,2013-02-25 09:25:00,
2013-02-25 04:26:00,37.1,27.2,30.06,NE,56,3.0,13.0,67,0.00,,---,0.00,VWS V13.01,2013-02-25 09:26:00,
2013-02-25 04:30:00,37.0,27.1,30.06,East,79,4.0,13.0,67,0.00,,---,0.00,VWS V13.01,2013-02-25 09:30:00,
2013-02-25 04:31:00,37.0,27.1,30.06,ENE,63,0.0,13.0,67,0.00,,---,0.00,VWS V13.01,2013-02-25 09:31:00,
2013-02-25 04:35:00,36.9,27.0,30.06,NE,46,9.0,11.0,67,0.00,,---,0.00,VWS V13.01,2013-02-25 09:35:00,
2013-02-25 04:36:00,36.8,26.9,30.06,ENE,76,0.0,11.0,67,0.00,,---,0.00,VWS V13.01,2013-02-25 09:36:00,
2013-02-25 04:40:00,36.7,27.1,30.06,ENE,63,1.0,11.0,68,0.00,,---,0.00,VWS V13.01,2013-02-25 09:40:00,
2013-02-25 04:41:00,36.7,27.1,30.06,ENE,60,1.0,11.0,68,0.00,,---,0.00,VWS V13.01,2013-02-25 09:41:00,
2013-02-25 04:45:00,36.6,27.0,30.06,East,94,6.0,11.0,68,0.00,,---,0.00,VWS V13.01,2013-02-25 09:45:00,
2013-02-25 04:46:00,36.5,27.0,30.06,ENE,69,0.0,11.0,68,0.00,,---,0.00,VWS V13.01,2013-02-25 09:46:00,
2013-02-25 04:50:00,36.4,26.9,30.06,ENE,60,4.0,11.0,68,0.00,,---,0.00,VWS V13.01,2013-02-25 09:50:00,
2013-02-25 04:51:00,36.4,26.9,30.07,ENE,69,0.0,11.0,68,0.00,,---,0.00,VWS V13.01,2013-02-25 09:51:00,
2013-02-25 04:55:00,36.2,26.7,30.07,NE,51,2.0,11.0,68,0.00,,---,0.00,VWS V13.01,2013-02-25 09:55:00,
2013-02-25 04:56:00,36.2,26.7,30.07,ENE,57,6.0,11.0,68,0.00,,---,0.00,VWS V13.01,2013-02-25 09:56:00,
2013-02-25 05:00:00,36.1,26.9,30.07,ENE,61,0.0,11.0,69,0.00,,---,0.00,VWS V13.01,2013-02-25 10:00:00,
2013-02-25 05:01:00,36.1,26.9,30.07,ENE,62,0.0,11.0,69,0.00,,---,0.00,VWS V13.01,2013-02-25 10:01:00,
2013-02-25 05:05:00,35.9,26.7,30.08,ENE,66,0.0,3.0,69,0.00,,---,0.00,VWS V13.01,2013-02-25 10:05:00,
2013-02-25 05:06:00,35.9,26.7,30.08,ENE,67,0.0,3.0,69,0.00,,---,0.00,VWS V13.01,2013-02-25 10:06:00,
2013-02-25 05:11:00,35.8,26.6,30.08,East,95,3.0,7.0,69,0.00,,---,0.00,VWS V13.01,2013-02-25 10:11:00,
2013-02-25 05:16:00,35.7,26.5,30.08,ESE,105,1.0,11.0,69,0.00,,---,0.00,VWS V13.01,2013-02-25 10:16:00,
2013-02-25 05:17:00,35.7,26.5,30.08,East,80,2.0,11.0,69,0.00,,---,0.00,VWS V13.01,2013-02-25 10:17:00,
2013-02-25 05:21:00,35.6,26.5,30.08,ENE,71,0.0,11.0,69,0.00,,---,0.00,VWS V13.01,2013-02-25 10:21:00,
2013-02-25 05:22:00,35.6,26.5,30.08,ENE,69,7.0,11.0,69,0.00,,---,0.00,VWS V13.01,2013-02-25 10:22:00,
2013-02-25 05:26:00,35.5,26.4,30.09,East,83,2.0,11.0,69,0.00,,---,0.00,VWS V13.01,2013-02-25 10:26:00,
2013-02-25 05:27:00,35.5,26.4,30.09,ENE,71,3.0,11.0,69,0.00,,---,0.00,VWS V13.01,2013-02-25 10:27:00,
2013-02-25 05:31:00,35.4,26.3,30.09,ENE,58,0.0,11.0,69,0.00,,---,0.00,VWS V13.01,2013-02-25 10:31:00,
2013-02-25 05:32:00,35.3,26.5,30.09,NE,45,8.0,10.0,70,0.00,,---,0.00,VWS V13.01,2013-02-25 10:32:00,
2013-02-25 05:36:00,35.3,26.5,30.09,NNE,21,4.0,10.0,70,0.00,,---,0.00,VWS V13.01,2013-02-25 10:36:00,
2013-02-25 05:37:00,35.2,26.4,30.09,ENE,67,3.0,10.0,70,0.00,,---,0.00,VWS V13.01,2013-02-25 10:37:00,
2013-02-25 05:41:00,35.2,26.4,30.09,ENE,69,0.0,10.0,70,0.00,,---,0.00,VWS V13.01,2013-02-25 10:41:00,
2013-02-25 05:42:00,35.2,26.4,30.09,NE,52,3.0,10.0,70,0.00,,---,0.00,VWS V13.01,2013-02-25 10:42:00,
2013-02-25 05:46:00,35.1,26.3,30.09,ENE,57,0.0,10.0,70,0.00,,---,0.00,VWS V13.01,2013-02-25 10:46:00,
2013-02-25 05:47:00,35.1,26.3,30.09,East,84,4.0,10.0,70,0.00,,---,0.00,VWS V13.01,2013-02-25 10:47:00,
2013-02-25 05:51:00,35.0,26.2,30.09,ENE,77,4.0,12.0,70,0.00,,---,0.00,VWS V13.01,2013-02-25 10:51:00,
2013-02-25 05:52:00,35.0,26.2,30.09,East,79,4.0,12.0,70,0.00,,---,0.00,VWS V13.01,2013-02-25 10:52:00,
2013-02-25 05:56:00,34.9,26.1,30.09,ENE,65,3.0,12.0,70,0.00,,---,0.00,VWS V13.01,2013-02-25 10:56:00,
2013-02-25 05:57:00,34.8,26.0,30.09,ENE,65,0.0,12.0,70,0.00,,---,0.00,VWS V13.01,2013-02-25 10:57:00,
2013-02-25 06:01:00,34.8,26.0,30.09,NE,43,3.0,5.0,70,0.00,,---,0.00,VWS V13.01,2013-02-25 11:01:00,
2013-02-25 06:02:00,34.7,25.9,30.09,NE,56,4.0,7.0,70,0.00,,---,0.00,VWS V13.01,2013-02-25 11:02:00,
2013-02-25 06:06:00,34.6,25.8,30.09,East,84,6.0,10.0,70,0.00,,---,0.00,VWS V13.01,2013-02-25 11:06:00,
2013-02-25 06:07:00,34.6,25.8,30.09,ENE,67,5.0,10.0,70,0.00,,---,0.00,VWS V13.01,2013-02-25 11:07:00,
2013-02-25 06:11:00,34.4,25.6,30.10,ENE,70,0.0,10.0,70,0.00,,---,0.00,VWS V13.01,2013-02-25 11:11:00,
2013-02-25 06:12:00,34.4,25.6,30.10,ENE,69,0.0,10.0,70,0.00,,---,0.00,VWS V13.01,2013-02-25 11:12:00,
2013-02-25 06:16:00,34.4,25.6,30.10,ENE,65,0.0,10.0,70,0.00,,---,0.00,VWS V13.01,2013-02-25 11:16:00,
2013-02-25 06:17:00,34.4,25.6,30.10,ENE,65,0.0,10.0,70,0.00,,---,0.00,VWS V13.01,2013-02-25 11:17:00,
2013-02-25 06:21:00,34.4,26.0,30.10,ENE,69,2.0,10.0,71,0.00,,---,0.00,VWS V13.01,2013-02-25 11:21:00,
2013-02-25 06:22:00,34.4,26.0,30.10,ENE,75,1.0,10.0,71,0.00,,---,0.00,VWS V13.01,2013-02-25 11:22:00,
2013-02-25 06:26:00,34.4,26.0,30.10,ENE,57,1.0,10.0,71,0.00,,---,0.00,VWS V13.01,2013-02-25 11:26:00,
2013-02-25 06:27:00,34.4,26.0,30.10,ENE,65,9.0,10.0,71,0.00,,---,0.00,VWS V13.01,2013-02-25 11:27:00,
2013-02-25 06:28:00,34.4,26.0,30.10,ENE,62,1.0,10.0,71,0.00,,---,0.00,VWS V13.01,2013-02-25 11:28:00,
2013-02-25 06:31:00,34.4,26.0,30.10,ENE,66,2.0,2.0,71,0.00,,---,0.00,VWS V13.01,2013-02-25 11:31:00,
2013-02-25 06:32:00,34.3,25.9,30.10,ENE,66,0.0,2.0,71,0.00,,---,0.00,VWS V13.01,2013-02-25 11:32:00,
2013-02-25 06:33:00,34.3,25.9,30.10,ENE,65,0.0,2.0,71,0.00,,---,0.00,VWS V13.01,2013-02-25 11:33:00,
2013-02-25 06:37:00,34.3,25.9,30.10,ENE,62,0.0,5.0,71,0.00,,---,0.00,VWS V13.01,2013-02-25 11:37:00,
2013-02-25 06:38:00,34.2,26.1,30.10,ENE,62,0.0,5.0,72,0.00,,---,0.00,VWS V13.01,2013-02-25 11:38:00,
2013-02-25 06:42:00,34.1,25.7,30.10,ENE,61,3.0,9.0,71,0.00,,---,0.00,VWS V13.01,2013-02-25 11:42:00,
2013-02-25 06:43:00,34.1,26.0,30.10,ENE,60,0.0,9.0,72,0.00,,---,0.00,VWS V13.01,2013-02-25 11:43:00,
2013-02-25 06:47:00,34.0,25.9,30.10,East,98,3.0,9.0,72,0.00,,---,0.00,VWS V13.01,2013-02-25 11:47:00,
2013-02-25 06:48:00,34.0,25.9,30.10,ENE,65,4.0,9.0,72,0.00,,---,0.00,VWS V13.01,2013-02-25 11:48:00,
2013-02-25 06:52:00,33.9,25.8,30.10,ENE,68,1.0,9.0,72,0.00,,---,0.00,VWS V13.01,2013-02-25 11:52:00,
2013-02-25 06:53:00,33.9,25.8,30.11,ENE,68,0.0,9.0,72,0.00,,---,0.00,VWS V13.01,2013-02-25 11:53:00,
2013-02-25 06:57:00,33.8,25.7,30.11,ENE,71,3.0,9.0,72,0.00,,---,0.00,VWS V13.01,2013-02-25 11:57:00,
2013-02-25 06:58:00,33.8,25.7,30.11,ENE,69,1.0,9.0,72,0.00,,---,0.00,VWS V13.01,2013-02-25 11:58:00,
2013-02-25 07:02:00,33.8,25.7,30.11,ENE,69,1.0,3.0,72,0.00,,---,0.00,VWS V13.01,2013-02-25 12:02:00,
2013-02-25 07:03:00,33.7,25.6,30.11,ENE,69,4.0,4.0,72,0.00,,---,0.00,VWS V13.01,2013-02-25 12:03:00,
2013-02-25 07:04:00,33.7,25.6,30.11,ENE,69,0.0,4.0,72,0.00,,---,0.00,VWS V13.01,2013-02-25 12:04:00,
2013-02-25 07:07:00,33.7,25.6,30.11,ENE,69,0.0,5.0,72,0.00,,---,0.00,VWS V13.01,2013-02-25 12:07:00,
2013-02-25 07:08:00,33.7,25.6,30.11,ENE,69,0.0,5.0,72,0.00,,---,0.00,VWS V13.01,2013-02-25 12:08:00,
2013-02-25 07:09:00,33.7,25.6,30.11,ENE,69,6.0,6.0,72,0.00,,---,0.00,VWS V13.01,2013-02-25 12:09:00,
2013-02-25 07:12:00,33.6,25.5,30.11,ENE,67,0.0,6.0,72,0.00,,---,0.00,VWS V13.01,2013-02-25 12:12:00,
2013-02-25 07:13:00,33.6,25.5,30.11,ENE,67,0.0,6.0,72,0.00,,---,0.00,VWS V13.01,2013-02-25 12:13:00,
2013-02-25 07:14:00,33.6,25.5,30.11,ENE,67,1.0,6.0,72,0.00,,---,0.00,VWS V13.01,2013-02-25 12:14:00,
2013-02-25 07:17:00,33.5,25.5,30.12,ENE,65,2.0,6.0,72,0.00,,---,0.00,VWS V13.01,2013-02-25 12:17:00,
2013-02-25 07:18:00,33.5,25.5,30.12,NE,48,6.0,9.0,72,0.00,,---,0.00,VWS V13.01,2013-02-25 12:18:00,
2013-02-25 07:19:00,33.5,25.5,30.11,NE,45,0.0,9.0,72,0.00,,---,0.00,VWS V13.01,2013-02-25 12:19:00,
2013-02-25 07:22:00,33.5,25.5,30.11,ENE,72,0.0,9.0,72,0.00,,---,0.00,VWS V13.01,2013-02-25 12:22:00,
2013-02-25 07:23:00,33.5,25.5,30.11,NE,52,1.0,9.0,72,0.00,,---,0.00,VWS V13.01,2013-02-25 12:23:00,
2013-02-25 07:24:00,33.5,25.5,30.11,NE,53,0.0,9.0,72,0.00,,---,0.00,VWS V13.01,2013-02-25 12:24:00,
2013-02-25 07:27:00,33.5,25.5,30.11,ENE,65,0.0,9.0,72,0.00,,---,0.00,VWS V13.01,2013-02-25 12:27:00,
2013-02-25 07:28:00,33.5,25.5,30.11,NE,45,3.0,9.0,72,0.00,,---,0.00,VWS V13.01,2013-02-25 12:28:00,
2013-02-25 07:29:00,33.5,25.8,30.11,ENE,76,2.0,9.0,73,0.00,,---,0.00,VWS V13.01,2013-02-25 12:29:00,
2013-02-25 07:32:00,33.4,25.4,30.11,NE,53,3.0,4.0,72,0.00,,---,0.00,VWS V13.01,2013-02-25 12:32:00,
2013-02-25 07:33:00,33.4,25.4,30.11,ENE,64,5.0,7.0,72,0.00,,---,0.00,VWS V13.01,2013-02-25 12:33:00,
2013-02-25 07:34:00,33.4,25.4,30.11,NNE,19,2.0,7.0,72,0.00,,---,0.00,VWS V13.01,2013-02-25 12:34:00,
2013-02-25 07:35:00,33.4,25.4,30.11,NE,34,3.0,7.0,72,0.00,,---,0.00,VWS V13.01,2013-02-25 12:35:00,
2013-02-25 07:37:00,33.4,25.4,30.11,NE,46,0.0,10.0,72,0.00,,---,0.00,VWS V13.01,2013-02-25 12:37:00,
2013-02-25 07:38:00,33.4,25.4,30.11,East,79,6.0,10.0,72,0.00,,---,0.00,VWS V13.01,2013-02-25 12:38:00,
2013-02-25 07:39:00,33.4,25.4,30.12,East,82,0.0,10.0,72,0.00,,---,0.00,VWS V13.01,2013-02-25 12:39:00,
2013-02-25 07:40:00,33.4,25.4,30.12,ENE,74,4.0,10.0,72,0.00,,---,0.00,VWS V13.01,2013-02-25 12:40:00,
2013-02-25 07:42:00,33.4,25.4,30.12,ENE,72,3.0,10.0,72,0.00,,---,0.00,VWS V13.01,2013-02-25 12:42:00,
2013-02-25 07:44:00,33.4,25.4,30.12,ENE,70,3.0,10.0,72,0.00,,---,0.00,VWS V13.01,2013-02-25 12:44:00,
2013-02-25 07:45:00,33.4,25.4,30.12,NE,52,0.0,10.0,72,0.00,,---,0.00,VWS V13.01,2013-02-25 12:45:00,
2013-02-25 07:47:00,33.4,25.4,30.13,NE,52,0.0,10.0,72,0.00,,---,0.00,VWS V13.01,2013-02-25 12:47:00,
2013-02-25 07:49:00,33.4,25.7,30.13,ENE,78,2.0,10.0,73,0.00,,---,0.00,VWS V13.01,2013-02-25 12:49:00,
2013-02-25 07:50:00,33.4,25.7,30.13,East,84,4.0,10.0,73,0.00,,---,0.00,VWS V13.01,2013-02-25 12:50:00,
2013-02-25 07:52:00,33.4,25.7,30.14,NE,53,6.0,10.0,73,0.00,,---,0.00,VWS V13.01,2013-02-25 12:52:00,
2013-02-25 07:55:00,33.4,25.4,30.14,ENE,59,5.0,10.0,72,0.00,,---,0.00,VWS V13.01,2013-02-25 12:55:00,
2013-02-25 07:58:00,33.4,25.4,30.13,NE,52,0.0,10.0,72,0.00,,---,0.00,VWS V13.01,2013-02-25 12:58:00,
2013-02-25 08:00:00,33.4,25.4,30.14,ENE,63,1.0,10.0,72,0.00,,---,0.00,VWS V13.01,2013-02-25 13:00:00,
2013-02-25 08:01:00,33.4,25.0,30.14,ENE,63,0.0,10.0,71,0.00,,---,0.00,VWS V13.01,2013-02-25 13:01:00,
2013-02-25 08:03:00,33.5,25.5,30.15,ENE,78,3.0,5.0,72,0.00,,---,0.00,VWS V13.01,2013-02-25 13:03:00,
2013-02-25 08:04:00,33.4,25.4,30.15,East,96,6.0,10.0,72,0.00,,---,0.00,VWS V13.01,2013-02-25 13:04:00,
2013-02-25 08:05:00,33.5,25.5,30.15,ENE,72,0.0,10.0,72,0.00,,---,0.00,VWS V13.01,2013-02-25 13:05:00,
2013-02-25 08:06:00,33.5,25.5,30.15,ENE,69,6.0,10.0,72,0.00,,---,0.00,VWS V13.01,2013-02-25 13:06:00,
2013-02-25 08:08:00,33.5,25.1,30.14,ENE,69,4.0,10.0,71,0.00,,---,0.00,VWS V13.01,2013-02-25 13:08:00,
2013-02-25 08:09:00,33.5,25.1,30.14,East,100,0.0,10.0,71,0.00,,---,0.00,VWS V13.01,2013-02-25 13:09:00,
2013-02-25 08:11:00,33.5,25.1,30.15,East,80,5.0,10.0,71,0.00,,---,0.00,VWS V13.01,2013-02-25 13:11:00,
2013-02-25 08:13:00,33.6,25.2,30.15,NE,45,7.0,11.0,71,0.00,,---,0.00,VWS V13.01,2013-02-25 13:13:00,
2013-02-25 08:14:00,33.6,25.2,30.15,ENE,74,3.0,11.0,71,0.00,,---,0.00,VWS V13.01,2013-02-25 13:14:00,
2013-02-25 08:16:00,33.6,25.2,30.15,NE,53,3.0,11.0,71,0.00,,---,0.00,VWS V13.01,2013-02-25 13:16:00,
2013-02-25 08:17:00,33.6,25.2,30.15,NE,53,0.0,11.0,71,0.00,,---,0.00,VWS V13.01,2013-02-25 13:17:00,
2013-02-25 08:18:00,33.6,25.2,30.15,NE,55,2.0,11.0,71,0.00,,---,0.00,VWS V13.01,2013-02-25 13:18:00,
2013-02-25 08:19:00,33.7,25.3,30.15,NE,51,0.0,11.0,71,0.00,,---,0.00,VWS V13.01,2013-02-25 13:19:00,
2013-02-25 08:21:00,33.7,25.3,30.15,NE,52,0.0,11.0,71,0.00,,---,0.00,VWS V13.01,2013-02-25 13:21:00,
2013-02-25 08:22:00,33.7,25.3,30.15,NE,52,0.0,11.0,71,0.00,,---,0.00,VWS V13.01,2013-02-25 13:22:00,
2013-02-25 08:23:00,33.7,25.3,30.15,ENE,63,3.0,11.0,71,0.00,,---,0.00,VWS V13.01,2013-02-25 13:23:00,
2013-02-25 08:24:00,33.8,25.4,30.15,NE,42,1.0,11.0,71,0.00,,---,0.00,VWS V13.01,2013-02-25 13:24:00,
2013-02-25 08:26:00,33.8,25.4,30.15,ENE,61,4.0,11.0,71,0.00,,---,0.00,VWS V13.01,2013-02-25 13:26:00,
2013-02-25 08:27:00,33.8,25.4,30.15,ENE,71,5.0,11.0,71,0.00,,---,0.00,VWS V13.01,2013-02-25 13:27:00,
2013-02-25 08:28:00,33.8,25.1,30.15,ENE,64,6.0,11.0,70,0.00,,---,0.00,VWS V13.01,2013-02-25 13:28:00,
2013-02-25 08:30:00,33.8,25.1,30.15,ENE,60,3.0,11.0,70,0.00,,---,0.00,VWS V13.01,2013-02-25 13:30:00,
2013-02-25 08:31:00,33.9,25.2,30.15,ENE,67,6.0,6.0,70,0.00,,---,0.00,VWS V13.01,2013-02-25 13:31:00,
2013-02-25 08:32:00,33.9,25.2,30.15,ENE,65,2.0,6.0,70,0.00,,---,0.00,VWS V13.01,2013-02-25 13:32:00,
2013-02-25 08:34:00,33.9,25.2,30.15,ENE,71,6.0,6.0,70,0.00,,---,0.00,VWS V13.01,2013-02-25 13:34:00,
2013-02-25 08:36:00,34.0,25.3,30.15,ENE,60,3.0,9.0,70,0.00,,---,0.00,VWS V13.01,2013-02-25 13:36:00,
2013-02-25 08:37:00,34.0,25.3,30.15,ENE,60,0.0,9.0,70,0.00,,---,0.00,VWS V13.01,2013-02-25 13:37:00,
2013-02-25 08:39:00,34.1,25.4,30.15,ESE,113,0.0,9.0,70,0.00,,---,0.00,VWS V13.01,2013-02-25 13:39:00,
2013-02-25 08:41:00,34.1,25.4,30.15,ENE,61,7.0,10.0,70,0.00,,---,0.00,VWS V13.01,2013-02-25 13:41:00,
2013-02-25 08:42:00,34.2,25.1,30.15,East,93,4.0,10.0,69,0.00,,---,0.00,VWS V13.01,2013-02-25 13:42:00,
2013-02-25 08:44:00,34.2,25.1,30.15,NE,40,6.0,12.0,69,0.00,,---,0.00,VWS V13.01,2013-02-25 13:44:00,
2013-02-25 08:46:00,34.3,25.2,30.15,NE,40,0.0,12.0,69,0.00,,---,0.00,VWS V13.01,2013-02-25 13:46:00,
2013-02-25 08:47:00,34.3,25.2,30.15,NE,40,0.0,12.0,69,0.00,,---,0.00,VWS V13.01,2013-02-25 13:47:00,
2013-02-25 08:49:00,34.4,25.3,30.16,NE,36,5.0,12.0,69,0.00,,---,0.00,VWS V13.01,2013-02-25 13:49:00,
2013-02-25 08:51:00,34.4,25.0,30.16,East,86,7.0,12.0,68,0.00,,---,0.00,VWS V13.01,2013-02-25 13:51:00,
2013-02-25 08:52:00,34.4,25.0,30.16,SE,130,4.0,12.0,68,0.00,,---,0.00,VWS V13.01,2013-02-25 13:52:00,
2013-02-25 08:53:00,34.4,25.0,30.16,East,80,5.0,12.0,68,0.00,,---,0.00,VWS V13.01,2013-02-25 13:53:00,
2013-02-25 08:54:00,34.4,25.0,30.16,NE,42,4.0,12.0,68,0.00,,---,0.00,VWS V13.01,2013-02-25 13:54:00,
2013-02-25 08:56:00,34.4,25.0,30.16,NNE,24,2.0,12.0,68,0.00,,---,0.00,VWS V13.01,2013-02-25 13:56:00,
2013-02-25 08:57:00,34.4,25.0,30.16,ENE,72,10.0,12.0,68,0.00,,---,0.00,VWS V13.01,2013-02-25 13:57:00,
2013-02-25 08:58:00,34.4,25.0,30.17,ENE,69,5.0,12.0,68,0.00,,---,0.00,VWS V13.01,2013-02-25 13:58:00,
2013-02-25 08:59:00,34.4,24.6,30.17,ENE,66,5.0,12.0,67,0.00,,---,0.00,VWS V13.01,2013-02-25 13:59:00,
2013-02-25 09:02:00,34.5,24.7,30.17,ENE,57,5.0,6.0,67,0.00,,---,0.00,VWS V13.01,2013-02-25 14:02:00,
2013-02-25 09:04:00,34.6,24.8,30.17,NE,55,10.0,10.0,67,0.00,,---,0.00,VWS V13.01,2013-02-25 14:04:00,
2013-02-25 09:05:00,34.6,24.8,30.17,ENE,57,10.0,11.0,67,0.00,,---,0.00,VWS V13.01,2013-02-25 14:05:00,
2013-02-25 09:07:00,34.7,24.9,30.17,ENE,76,2.0,11.0,67,0.00,,---,0.00,VWS V13.01,2013-02-25 14:07:00,
2013-02-25 09:09:00,34.7,24.9,30.17,East,80,1.0,11.0,67,0.00,,---,0.00,VWS V13.01,2013-02-25 14:09:00,
2013-02-25 09:10:00,34.8,25.0,30.17,East,79,1.0,11.0,67,0.00,,---,0.00,VWS V13.01,2013-02-25 14:10:00,
2013-02-25 09:12:00,34.8,25.0,30.17,SE,141,4.0,11.0,67,0.00,,---,0.00,VWS V13.01,2013-02-25 14:12:00,
2013-02-25 09:13:00,34.8,25.0,30.17,ESE,106,5.0,11.0,67,0.00,,---,0.00,VWS V13.01,2013-02-25 14:13:00,
2013-02-25 09:15:00,34.9,25.1,30.17,ENE,64,3.0,11.0,67,0.00,,---,0.00,VWS V13.01,2013-02-25 14:15:00,
2013-02-25 09:16:00,35.0,25.2,30.18,East,92,3.0,11.0,67,0.00,,---,0.00,VWS V13.01,2013-02-25 14:16:00,
2013-02-25 09:18:00,35.1,24.9,30.18,NE,53,2.0,11.0,66,0.00,,---,0.00,VWS V13.01,2013-02-25 14:18:00,
2013-02-25 09:20:00,35.2,24.6,30.18,East,79,6.0,11.0,65,0.00,,---,0.00,VWS V13.01,2013-02-25 14:20:00,
2013-02-25 09:21:00,35.2,24.6,30.18,East,88,9.0,11.0,65,0.00,,---,0.00,VWS V13.01,2013-02-25 14:21:00,
2013-02-25 09:23:00,35.3,24.4,30.18,ENE,71,0.0,11.0,64,0.00,,---,0.00,VWS V13.01,2013-02-25 14:23:00,
2013-02-25 09:24:00,35.3,24.4,30.18,ENE,78,0.0,11.0,64,0.00,,---,0.00,VWS V13.01,2013-02-25 14:24:00,
2013-02-25 09:25:00,35.4,24.5,30.19,ENE,64,9.0,11.0,64,0.00,,---,0.00,VWS V13.01,2013-02-25 14:25:00,
2013-02-25 09:26:00,35.4,24.5,30.19,East,83,7.0,11.0,64,0.00,,---,0.00,VWS V13.01,2013-02-25 14:26:00,
2013-02-25 09:28:00,35.5,24.5,30.19,East,83,4.0,11.0,64,0.00,,---,0.00,VWS V13.01,2013-02-25 14:28:00,
2013-02-25 09:29:00,35.5,24.5,30.19,East,82,0.0,11.0,64,0.00,,---,0.00,VWS V13.01,2013-02-25 14:29:00,
2013-02-25 09:31:00,35.6,24.3,30.19,ENE,76,6.0,11.0,63,0.00,,---,0.00,VWS V13.01,2013-02-25 14:31:00,
2013-02-25 09:33:00,35.6,24.3,30.19,East,88,0.0,10.0,63,0.00,,---,0.00,VWS V13.01,2013-02-25 14:33:00,
2013-02-25 09:34:00,35.7,24.4,30.19,East,95,3.0,10.0,63,0.00,,---,0.00,VWS V13.01,2013-02-25 14:34:00,
2013-02-25 09:36:00,35.7,24.4,30.19,ESE,123,4.0,10.0,63,0.00,,---,0.00,VWS V13.01,2013-02-25 14:36:00,
2013-02-25 09:38:00,35.8,24.1,30.18,ENE,67,4.0,10.0,62,0.00,,---,0.00,VWS V13.01,2013-02-25 14:38:00,
2013-02-25 09:39:00,35.9,23.8,30.18,East,84,1.0,10.0,61,0.00,,---,0.00,VWS V13.01,2013-02-25 14:39:00,
2013-02-25 09:41:00,35.9,24.2,30.18,ESE,121,4.0,10.0,62,0.00,,---,0.00,VWS V13.01,2013-02-25 14:41:00,
2013-02-25 09:43:00,36.0,24.3,30.18,ENE,58,0.0,10.0,62,0.00,,---,0.00,VWS V13.01,2013-02-25 14:43:00,
2013-02-25 09:44:00,36.0,24.3,30.18,ENE,58,0.0,10.0,62,0.00,,---,0.00,VWS V13.01,2013-02-25 14:44:00,
2013-02-25 09:46:00,36.2,24.5,30.18,ENE,71,6.0,10.0,62,0.00,,---,0.00,VWS V13.01,2013-02-25 14:46:00,
2013-02-25 09:49:00,36.3,24.5,30.18,ESE,119,3.0,10.0,62,0.00,,---,0.00,VWS V13.01,2013-02-25 14:49:00,
2013-02-25 09:51:00,36.4,24.2,30.18,ESE,113,4.0,10.0,61,0.00,,---,0.00,VWS V13.01,2013-02-25 14:51:00,
2013-02-25 09:54:00,36.5,24.3,30.18,ESE,114,2.0,10.0,61,0.00,,---,0.00,VWS V13.01,2013-02-25 14:54:00,
2013-02-25 09:56:00,36.6,24.4,30.19,ENE,76,5.0,10.0,61,0.00,,---,0.00,VWS V13.01,2013-02-25 14:56:00,
2013-02-25 09:57:00,36.6,24.4,30.19,ENE,58,6.0,10.0,61,0.00,,---,0.00,VWS V13.01,2013-02-25 14:57:00,
2013-02-25 09:59:00,36.7,24.1,30.18,NE,44,1.0,11.0,60,0.00,,---,0.00,VWS V13.01,2013-02-25 14:59:00,
2013-02-25 10:00:00,36.8,24.2,30.18,NE,39,4.0,11.0,60,0.00,,---,0.00,VWS V13.01,2013-02-25 15:00:00,
2013-02-25 10:02:00,36.9,24.3,30.18,NE,54,0.0,3.0,60,0.00,,---,0.00,VWS V13.01,2013-02-25 15:02:00,
2013-02-25 10:04:00,36.9,24.3,30.18,East,83,5.0,8.0,60,0.00,,---,0.00,VWS V13.01,2013-02-25 15:04:00,
2013-02-25 10:05:00,37.0,24.0,30.18,East,83,4.0,8.0,59,0.00,,---,0.00,VWS V13.01,2013-02-25 15:05:00,
2013-02-25 10:07:00,37.0,24.0,30.18,ENE,72,4.0,10.0,59,0.00,,---,0.00,VWS V13.01,2013-02-25 15:07:00,
2013-02-25 10:09:00,37.1,24.1,30.18,ENE,61,1.0,10.0,59,0.00,,---,0.00,VWS V13.01,2013-02-25 15:09:00,
2013-02-25 10:10:00,37.1,24.1,30.18,ENE,64,4.0,10.0,59,0.00,,---,0.00,VWS V13.01,2013-02-25 15:10:00,
2013-02-25 10:12:00,37.1,24.1,30.18,ENE,59,1.0,10.0,59,0.00,,---,0.00,VWS V13.01,2013-02-25 15:12:00,
2013-02-25 10:14:00,37.2,24.2,30.18,SE,130,11.0,12.0,59,0.00,,---,0.00,VWS V13.01,2013-02-25 15:14:00,
2013-02-25 10:15:00,37.2,24.2,30.18,ENE,69,1.0,12.0,59,0.00,,---,0.00,VWS V13.01,2013-02-25 15:15:00,
2013-02-25 10:17:00,37.2,23.8,30.18,ENE,74,9.0,12.0,58,0.00,,---,0.00,VWS V13.01,2013-02-25 15:17:00,
2013-02-25 10:19:00,37.2,23.8,30.18,ENE,70,3.0,12.0,58,0.00,,---,0.00,VWS V13.01,2013-02-25 15:19:00,
2013-02-25 10:20:00,37.1,23.7,30.18,East,84,0.0,12.0,58,0.00,,---,0.00,VWS V13.01,2013-02-25 15:20:00,
2013-02-25 10:22:00,37.2,23.8,30.18,ENE,76,7.0,12.0,58,0.00,,---,0.00,VWS V13.01,2013-02-25 15:22:00,
2013-02-25 10:24:00,37.1,23.7,30.18,East,100,6.0,12.0,58,0.00,,---,0.00,VWS V13.01,2013-02-25 15:24:00,
2013-02-25 10:25:00,37.1,23.7,30.18,ENE,78,6.0,12.0,58,0.00,,---,0.00,VWS V13.01,2013-02-25 15:25:00,
2013-02-25 10:27:00,37.1,23.7,30.18,East,84,0.0,12.0,58,0.00,,---,0.00,VWS V13.01,2013-02-25 15:27:00,
2013-02-25 10:28:00,37.1,23.7,30.18,ENE,57,3.0,12.0,58,0.00,,---,0.00,VWS V13.01,2013-02-25 15:28:00,
2013-02-25 10:29:00,37.1,23.7,30.18,ENE,64,6.0,12.0,58,0.00,,---,0.00,VWS V13.01,2013-02-25 15:29:00,
2013-02-25 10:30:00,37.1,23.7,30.18,ENE,57,3.0,12.0,58,0.00,,---,0.00,VWS V13.01,2013-02-25 15:30:00,
2013-02-25 10:32:00,37.1,23.7,30.18,NE,55,4.0,7.0,58,0.00,,---,0.00,VWS V13.01,2013-02-25 15:32:00,
2013-02-25 10:33:00,37.1,23.7,30.18,East,90,10.0,10.0,58,0.00,,---,0.00,VWS V13.01,2013-02-25 15:33:00,
2013-02-25 10:34:00,37.2,23.8,30.18,East,79,2.0,10.0,58,0.00,,---,0.00,VWS V13.01,2013-02-25 15:34:00,
2013-02-25 10:35:00,37.2,23.8,30.18,ENE,61,0.0,10.0,58,0.00,,---,0.00,VWS V13.01,2013-02-25 15:35:00,
2013-02-25 10:37:00,37.3,24.3,30.18,East,81,4.0,10.0,59,0.00,,---,0.00,VWS V13.01,2013-02-25 15:37:00,
2013-02-25 10:38:00,37.3,24.3,30.18,ENE,73,4.0,10.0,59,0.00,,---,0.00,VWS V13.01,2013-02-25 15:38:00,
2013-02-25 10:39:00,37.3,24.3,30.18,East,90,6.0,10.0,59,0.00,,---,0.00,VWS V13.01,2013-02-25 15:39:00,
2013-02-25 10:40:00,37.4,24.4,30.17,NE,45,5.0,10.0,59,0.00,,---,0.00,VWS V13.01,2013-02-25 15:40:00,
2013-02-25 10:42:00,37.5,24.5,30.17,ENE,78,5.0,10.0,59,0.00,,---,0.00,VWS V13.01,2013-02-25 15:42:00,
2013-02-25 10:43:00,37.5,24.1,30.17,ESE,105,0.0,10.0,58,0.00,,---,0.00,VWS V13.01,2013-02-25 15:43:00,
2013-02-25 10:44:00,37.5,24.5,30.17,NE,47,1.0,10.0,59,0.00,,---,0.00,VWS V13.01,2013-02-25 15:44:00,
2013-02-25 10:45:00,37.6,24.6,30.17,NE,39,1.0,10.0,59,0.00,,---,0.00,VWS V13.01,2013-02-25 15:45:00,
2013-02-25 10:47:00,37.7,24.7,30.16,East,88,2.0,10.0,59,0.00,,---,0.00,VWS V13.01,2013-02-25 15:47:00,
2013-02-25 10:48:00,37.7,24.7,30.16,East,84,2.0,10.0,59,0.00,,---,0.00,VWS V13.01,2013-02-25 15:48:00,
2013-02-25 10:49:00,37.8,24.8,30.16,ENE,69,3.0,10.0,59,0.00,,---,0.00,VWS V13.01,2013-02-25 15:49:00,
2013-02-25 10:50:00,37.8,24.8,30.16,ENE,64,3.0,10.0,59,0.00,,---,0.00,VWS V13.01,2013-02-25 15:50:00,
2013-02-25 10:52:00,37.9,24.9,30.16,East,95,0.0,10.0,59,0.00,,---,0.00,VWS V13.01,2013-02-25 15:52:00,
2013-02-25 10:53:00,37.9,24.9,30.17,NE,43,1.0,10.0,59,0.00,,---,0.00,VWS V13.01,2013-02-25 15:53:00,
2013-02-25 10:54:00,38.0,25.0,30.17,NE,42,1.0,10.0,59,0.00,,---,0.00,VWS V13.01,2013-02-25 15:54:00,
2013-02-25 10:55:00,38.0,25.0,30.17,NE,40,1.0,10.0,59,0.00,,---,0.00,VWS V13.01,2013-02-25 15:55:00,
2013-02-25 10:57:00,38.1,25.1,30.17,NE,40,0.0,10.0,59,0.00,,---,0.00,VWS V13.01,2013-02-25 15:57:00,
2013-02-25 10:58:00,38.2,25.1,30.17,NE,39,2.0,10.0,59,0.00,,---,0.00,VWS V13.01,2013-02-25 15:58:00,
2013-02-25 11:00:00,38.2,24.7,30.17,ENE,65,0.0,10.0,58,0.00,,---,0.00,VWS V13.01,2013-02-25 16:00:00,
2013-02-25 11:01:00,38.3,25.2,30.17,East,87,0.0,10.0,59,0.00,,---,0.00,VWS V13.01,2013-02-25 16:01:00,
2013-02-25 11:03:00,38.3,25.2,30.16,East,80,3.0,4.0,59,0.00,,---,0.00,VWS V13.01,2013-02-25 16:03:00,
2013-02-25 11:04:00,38.4,24.9,30.16,ENE,73,3.0,6.0,58,0.00,,---,0.00,VWS V13.01,2013-02-25 16:04:00,
2013-02-25 11:05:00,38.4,24.9,30.16,East,88,3.0,6.0,58,0.00,,---,0.00,VWS V13.01,2013-02-25 16:05:00,
2013-02-25 11:06:00,38.4,24.9,30.16,ENE,76,2.0,6.0,58,0.00,,---,0.00,VWS V13.01,2013-02-25 16:06:00,
2013-02-25 11:08:00,38.5,24.6,30.16,ESE,103,4.0,8.0,57,0.00,,---,0.00,VWS V13.01,2013-02-25 16:08:00,
2013-02-25 11:09:00,38.5,24.6,30.16,ENE,70,1.0,8.0,57,0.00,,---,0.00,VWS V13.01,2013-02-25 16:09:00,
2013-02-25 11:10:00,38.6,24.7,30.17,ENE,68,3.0,8.0,57,0.00,,---,0.00,VWS V13.01,2013-02-25 16:10:00,
2013-02-25 11:11:00,38.6,24.7,30.17,ENE,69,0.0,8.0,57,0.00,,---,0.00,VWS V13.01,2013-02-25 16:11:00,
2013-02-25 11:13:00,38.7,25.2,30.17,ENE,59,4.0,8.0,58,0.00,,---,0.00,VWS V13.01,2013-02-25 16:13:00,
2013-02-25 11:14:00,38.7,24.8,30.17,ESE,103,0.0,8.0,57,0.00,,---,0.00,VWS V13.01,2013-02-25 16:14:00,
2013-02-25 11:16:00,38.8,24.9,30.17,East,88,0.0,8.0,57,0.00,,---,0.00,VWS V13.01,2013-02-25 16:16:00,
2013-02-25 11:18:00,38.9,25.4,30.17,NE,53,0.0,8.0,58,0.00,,---,0.00,VWS V13.01,2013-02-25 16:18:00,
2013-02-25 11:19:00,39.0,25.5,30.17,ENE,61,1.0,8.0,58,0.00,,---,0.00,VWS V13.01,2013-02-25 16:19:00,
2013-02-25 11:21:00,39.0,25.1,30.17,ENE,63,5.0,8.0,57,0.00,,---,0.00,VWS V13.01,2013-02-25 16:21:00,
2013-02-25 11:23:00,39.0,24.6,30.17,ENE,63,5.0,8.0,56,0.00,,---,0.00,VWS V13.01,2013-02-25 16:23:00,
2013-02-25 11:24:00,39.1,24.7,30.17,ENE,65,0.0,8.0,56,0.00,,---,0.00,VWS V13.01,2013-02-25 16:24:00,
2013-02-25 11:26:00,39.1,24.7,30.17,ENE,64,0.0,8.0,56,0.00,,---,0.00,VWS V13.01,2013-02-25 16:26:00,
2013-02-25 11:28:00,39.1,24.7,30.17,NE,51,0.0,8.0,56,0.00,,---,0.00,VWS V13.01,2013-02-25 16:28:00,
2013-02-25 11:29:00,39.1,24.7,30.17,NNE,24,7.0,8.0,56,0.00,,---,0.00,VWS V13.01,2013-02-25 16:29:00,
2013-02-25 11:31:00,39.1,24.7,30.17,NE,41,4.0,9.0,56,0.00,,---,0.00,VWS V13.01,2013-02-25 16:31:00,
2013-02-25 11:33:00,39.2,24.8,30.17,NE,47,0.0,5.0,56,0.00,,---,0.00,VWS V13.01,2013-02-25 16:33:00,
2013-02-25 11:35:00,39.2,24.8,30.17,NE,36,6.0,6.0,56,0.00,,---,0.00,VWS V13.01,2013-02-25 16:35:00,
2013-02-25 11:36:00,39.3,24.9,30.16,NE,49,5.0,10.0,56,0.00,,---,0.00,VWS V13.01,2013-02-25 16:36:00,
2013-02-25 11:38:00,39.3,24.5,30.16,NE,48,10.0,10.0,55,0.00,,---,0.00,VWS V13.01,2013-02-25 16:38:00,
2013-02-25 11:40:00,39.3,24.5,30.16,ENE,58,6.0,10.0,55,0.00,,---,0.00,VWS V13.01,2013-02-25 16:40:00,
2013-02-25 11:41:00,39.3,24.9,30.16,ENE,71,2.0,10.0,56,0.00,,---,0.00,VWS V13.01,2013-02-25 16:41:00,
2013-02-25 11:42:00,39.4,25.0,30.16,East,88,3.0,10.0,56,0.00,,---,0.00,VWS V13.01,2013-02-25 16:42:00,
2013-02-25 11:43:00,39.5,24.7,30.17,NE,50,2.0,10.0,55,0.00,,---,0.00,VWS V13.01,2013-02-25 16:43:00,
2013-02-25 11:45:00,39.5,24.7,30.17,NE,52,0.0,10.0,55,0.00,,---,0.00,VWS V13.01,2013-02-25 16:45:00,
2013-02-25 11:46:00,39.5,24.7,30.17,ESE,119,4.0,10.0,55,0.00,,---,0.00,VWS V13.01,2013-02-25 16:46:00,
2013-02-25 11:47:00,39.5,24.7,30.17,ESE,119,0.0,10.0,55,0.00,,---,0.00,VWS V13.01,2013-02-25 16:47:00,
2013-02-25 11:48:00,39.5,24.7,30.17,NE,51,2.0,10.0,55,0.00,,---,0.00,VWS V13.01,2013-02-25 16:48:00,
2013-02-25 11:50:00,39.5,24.7,30.17,NE,56,2.0,10.0,55,0.00,,---,0.00,VWS V13.01,2013-02-25 16:50:00,
2013-02-25 11:51:00,39.6,25.2,30.16,SE,128,3.0,10.0,56,0.00,,---,0.00,VWS V13.01,2013-02-25 16:51:00,
2013-02-25 11:52:00,39.6,25.2,30.16,East,82,3.0,10.0,56,0.00,,---,0.00,VWS V13.01,2013-02-25 16:52:00,
2013-02-25 11:54:00,39.7,24.9,30.16,ESE,105,5.0,10.0,55,0.00,,---,0.00,VWS V13.01,2013-02-25 16:54:00,
2013-02-25 11:55:00,39.7,24.9,30.16,East,79,3.0,10.0,55,0.00,,---,0.00,VWS V13.01,2013-02-25 16:55:00,
2013-02-25 11:56:00,39.7,24.4,30.16,East,84,2.0,10.0,54,0.00,,---,0.00,VWS V13.01,2013-02-25 16:56:00,
2013-02-25 11:57:00,39.8,24.5,30.16,ENE,69,2.0,10.0,54,0.00,,---,0.00,VWS V13.01,2013-02-25 16:57:00,
2013-02-25 11:59:00,39.8,25.0,30.16,NE,54,4.0,10.0,55,0.00,,---,0.00,VWS V13.01,2013-02-25 16:59:00,
2013-02-25 12:00:00,39.8,25.0,30.16,NE,45,7.0,10.0,55,0.00,,---,0.00,VWS V13.01,2013-02-25 17:00:00,
2013-02-25 12:01:00,39.8,24.5,30.16,NE,37,1.0,6.0,54,0.00,,---,0.00,VWS V13.01,2013-02-25 17:01:00,
2013-02-25 12:02:00,39.8,24.5,30.16,NE,37,2.0,6.0,54,0.00,,---,0.00,VWS V13.01,2013-02-25 17:02:00,
2013-02-25 12:04:00,39.8,25.0,30.16,ENE,71,6.0,6.0,55,0.00,,---,0.00,VWS V13.01,2013-02-25 17:04:00,
2013-02-25 12:05:00,39.9,25.1,30.16,ESE,109,0.0,7.0,55,0.00,,---,0.00,VWS V13.01,2013-02-25 17:05:00,
2013-02-25 12:07:00,39.9,25.1,30.16,NE,50,4.0,8.0,55,0.00,,---,0.00,VWS V13.01,2013-02-25 17:07:00,
2013-02-25 12:09:00,39.9,24.6,30.16,East,82,0.0,8.0,54,0.00,,---,0.00,VWS V13.01,2013-02-25 17:09:00,
2013-02-25 12:10:00,39.9,24.6,30.16,East,82,0.0,8.0,54,0.00,,---,0.00,VWS V13.01,2013-02-25 17:10:00,
2013-02-25 12:12:00,40.0,25.1,30.15,ENE,76,4.0,8.0,55,0.00,,---,0.00,VWS V13.01,2013-02-25 17:12:00,
2013-02-25 12:14:00,40.0,25.1,30.15,East,85,4.0,8.0,55,0.00,,---,0.00,VWS V13.01,2013-02-25 17:14:00,
2013-02-25 12:15:00,40.1,25.2,30.15,East,89,0.0,8.0,55,0.00,,---,0.00,VWS V13.01,2013-02-25 17:15:00,
2013-02-25 12:17:00,40.1,25.2,30.15,East,86,0.0,8.0,55,0.00,,---,0.00,VWS V13.01,2013-02-25 17:17:00,
2013-02-25 12:18:00,40.1,25.2,30.15,East,86,0.0,8.0,55,0.00,,---,0.00,VWS V13.01,2013-02-25 17:18:00,
2013-02-25 12:19:00,40.1,24.8,30.15,East,86,2.0,8.0,54,0.00,,---,0.00,VWS V13.01,2013-02-25 17:19:00,
2013-02-25 12:21:00,40.2,25.3,30.14,ENE,76,8.0,10.0,55,0.00,,---,0.00,VWS V13.01,2013-02-25 17:21:00,
2013-02-25 12:22:00,40.2,25.3,30.14,NNE,26,7.0,10.0,55,0.00,,---,0.00,VWS V13.01,2013-02-25 17:22:00,
2013-02-25 12:23:00,40.2,25.3,30.14,NE,44,6.0,10.0,55,0.00,,---,0.00,VWS V13.01,2013-02-25 17:23:00,
2013-02-25 12:24:00,40.2,25.3,30.14,NE,37,4.0,10.0,55,0.00,,---,0.00,VWS V13.01,2013-02-25 17:24:00,
2013-02-25 12:26:00,40.3,25.4,30.14,NE,49,5.0,10.0,55,0.00,,---,0.00,VWS V13.01,2013-02-25 17:26:00,
2013-02-25 12:27:00,40.3,25.4,30.14,NNE,30,2.0,10.0,55,0.00,,---,0.00,VWS V13.01,2013-02-25 17:27:00,
2013-02-25 12:28:00,40.4,25.5,30.14,North,360,4.0,10.0,55,0.00,,---,0.00,VWS V13.01,2013-02-25 17:28:00,
2013-02-25 12:29:00,40.4,25.1,30.14,NNE,20,3.0,11.0,54,0.00,,---,0.00,VWS V13.01,2013-02-25 17:29:00,
2013-02-25 12:31:00,40.4,25.5,30.14,NNE,24,5.0,11.0,55,0.00,,---,0.00,VWS V13.01,2013-02-25 17:31:00,
2013-02-25 12:32:00,40.4,25.5,30.14,NNE,17,2.0,6.0,55,0.00,,---,0.00,VWS V13.01,2013-02-25 17:32:00,
2013-02-25 12:33:00,40.5,25.6,30.14,NNE,33,2.0,6.0,55,0.00,,---,0.00,VWS V13.01,2013-02-25 17:33:00,
2013-02-25 12:35:00,40.5,25.6,30.13,North,360,1.0,6.0,55,0.00,,---,0.00,VWS V13.01,2013-02-25 17:35:00,
2013-02-25 12:36:00,40.6,25.7,30.13,North,5,0.0,6.0,55,0.00,,---,0.00,VWS V13.01,2013-02-25 17:36:00,
2013-02-25 12:37:00,40.6,25.7,30.13,NE,36,0.0,7.0,55,0.00,,---,0.00,VWS V13.01,2013-02-25 17:37:00,
2013-02-25 12:38:00,40.6,25.3,30.13,ENE,65,0.0,7.0,54,0.00,,---,0.00,VWS V13.01,2013-02-25 17:38:00,
2013-02-25 12:40:00,40.6,25.7,30.14,ENE,61,2.0,7.0,55,0.00,,---,0.00,VWS V13.01,2013-02-25 17:40:00,
2013-02-25 12:41:00,40.6,25.7,30.13,NE,54,0.0,7.0,55,0.00,,---,0.00,VWS V13.01,2013-02-25 17:41:00,
2013-02-25 12:42:00,40.6,25.3,30.13,NE,55,0.0,7.0,54,0.00,,---,0.00,VWS V13.01,2013-02-25 17:42:00,
2013-02-25 12:43:00,40.7,25.8,30.13,ENE,61,0.0,7.0,55,0.00,,---,0.00,VWS V13.01,2013-02-25 17:43:00,
2013-02-25 12:45:00,40.7,25.4,30.13,ENE,63,6.0,7.0,54,0.00,,---,0.00,VWS V13.01,2013-02-25 17:45:00,
2013-02-25 12:46:00,40.7,25.4,30.13,NE,53,0.0,7.0,54,0.00,,---,0.00,VWS V13.01,2013-02-25 17:46:00,
2013-02-25 12:47:00,40.7,25.4,30.14,ENE,74,5.0,7.0,54,0.00,,---,0.00,VWS V13.01,2013-02-25 17:47:00,
2013-02-25 12:48:00,40.8,25.9,30.14,NE,45,1.0,7.0,55,0.00,,---,0.00,VWS V13.01,2013-02-25 17:48:00,
2013-02-25 12:50:00,40.8,25.5,30.14,NE,55,1.0,7.0,54,0.00,,---,0.00,VWS V13.01,2013-02-25 17:50:00,
2013-02-25 12:51:00,40.8,25.0,30.14,NE,51,0.0,7.0,53,0.00,,---,0.00,VWS V13.01,2013-02-25 17:51:00,
2013-02-25 12:52:00,40.8,25.5,30.14,NE,50,4.0,7.0,54,0.00,,---,0.00,VWS V13.01,2013-02-25 17:52:00,
2013-02-25 12:53:00,40.9,26.0,30.13,NE,48,2.0,7.0,55,0.00,,---,0.00,VWS V13.01,2013-02-25 17:53:00,
2013-02-25 12:55:00,40.9,26.0,30.13,NE,36,0.0,7.0,55,0.00,,---,0.00,VWS V13.01,2013-02-25 17:55:00,
2013-02-25 12:56:00,41.0,25.6,30.13,NE,42,1.0,7.0,54,0.00,,---,0.00,VWS V13.01,2013-02-25 17:56:00,
2013-02-25 12:57:00,41.0,25.6,30.13,NE,43,1.0,7.0,54,0.00,,---,0.00,VWS V13.01,2013-02-25 17:57:00,
2013-02-25 12:58:00,41.0,25.2,30.13,ENE,57,0.0,7.0,53,0.00,,---,0.00,VWS V13.01,2013-02-25 17:58:00,
2013-02-25 13:00:00,41.0,25.2,30.13,ENE,58,1.0,7.0,53,0.00,,---,0.00,VWS V13.01,2013-02-25 18:00:00,
2013-02-25 13:01:00,41.0,26.5,30.13,NNE,26,4.0,4.0,56,0.00,,---,0.00,VWS V13.01,2013-02-25 18:01:00,
2013-02-25 13:02:00,41.0,25.6,30.13,NNE,18,4.0,9.0,54,0.00,,---,0.00,VWS V13.01,2013-02-25 18:02:00,
2013-02-25 13:03:00,41.1,25.7,30.13,NE,55,2.0,9.0,54,0.00,,---,0.00,VWS V13.01,2013-02-25 18:03:00,
2013-02-25 13:05:00,41.1,25.7,30.13,NNE,32,2.0,9.0,54,0.00,,---,0.00,VWS V13.01,2013-02-25 18:05:00,
2013-02-25 13:07:00,41.1,25.7,30.13,NNE,30,3.0,9.0,54,0.00,,---,0.00,VWS V13.01,2013-02-25 18:07:00,
2013-02-25 13:09:00,41.1,25.7,30.13,NE,49,0.0,9.0,54,0.00,,---,0.00,VWS V13.01,2013-02-25 18:09:00,
2013-02-25 13:10:00,41.2,25.8,30.13,NE,54,0.0,9.0,54,0.00,,---,0.00,VWS V13.01,2013-02-25 18:10:00,
2013-02-25 13:12:00,41.2,25.8,30.13,NNE,19,0.0,9.0,54,0.00,,---,0.00,VWS V13.01,2013-02-25 18:12:00,
2013-02-25 13:14:00,41.2,25.8,30.13,NNE,20,0.0,9.0,54,0.00,,---,0.00,VWS V13.01,2013-02-25 18:14:00,
2013-02-25 13:15:00,41.3,25.9,30.13,NE,53,1.0,9.0,54,0.00,,---,0.00,VWS V13.01,2013-02-25 18:15:00,
2013-02-25 13:17:00,41.2,25.4,30.13,NE,53,0.0,9.0,53,0.00,,---,0.00,VWS V13.01,2013-02-25 18:17:00,
2013-02-25 13:19:00,41.3,25.5,30.14,NE,49,0.0,9.0,53,0.00,,---,0.00,VWS V13.01,2013-02-25 18:19:00,
2013-02-25 13:20:00,41.3,25.9,30.14,NE,48,3.0,9.0,54,0.00,,---,0.00,VWS V13.01,2013-02-25 18:20:00,
2013-02-25 13:22:00,41.3,25.5,30.14,NE,38,4.0,9.0,53,0.00,,---,0.00,VWS V13.01,2013-02-25 18:22:00,
2013-02-25 13:23:00,41.3,25.5,30.14,NE,42,5.0,9.0,53,0.00,,---,0.00,VWS V13.01,2013-02-25 18:23:00,
2013-02-25 13:24:00,41.3,25.0,30.14,NNW,334,3.0,9.0,52,0.00,,---,0.00,VWS V13.01,2013-02-25 18:24:00,
2013-02-25 13:26:00,41.2,24.9,30.14,NNW,329,0.0,9.0,52,0.00,,---,0.00,VWS V13.01,2013-02-25 18:26:00,
2013-02-25 13:27:00,41.2,24.9,30.13,ENE,65,3.0,9.0,52,0.00,,---,0.00,VWS V13.01,2013-02-25 18:27:00,
2013-02-25 13:28:00,41.2,24.9,30.13,ENE,64,1.0,9.0,52,0.00,,---,0.00,VWS V13.01,2013-02-25 18:28:00,
2013-02-25 13:29:00,41.1,24.8,30.13,ENE,74,5.0,9.0,52,0.00,,---,0.00,VWS V13.01,2013-02-25 18:29:00,
2013-02-25 13:31:00,41.1,25.3,30.13,ENE,73,0.0,9.0,53,0.00,,---,0.00,VWS V13.01,2013-02-25 18:31:00,
2013-02-25 13:32:00,41.2,25.4,30.13,NE,38,6.0,6.0,53,0.00,,---,0.00,VWS V13.01,2013-02-25 18:32:00,
2013-02-25 13:33:00,41.2,25.4,30.13,NE,38,4.0,6.0,53,0.00,,---,0.00,VWS V13.01,2013-02-25 18:33:00,
2013-02-25 13:34:00,41.2,25.8,30.12,NE,37,0.0,6.0,54,0.00,,---,0.00,VWS V13.01,2013-02-25 18:34:00,
2013-02-25 13:36:00,41.2,25.8,30.13,NE,38,0.0,6.0,54,0.00,,---,0.00,VWS V13.01,2013-02-25 18:36:00,
2013-02-25 13:37:00,41.3,25.9,30.13,NE,38,1.0,6.0,54,0.00,,---,0.00,VWS V13.01,2013-02-25 18:37:00,
2013-02-25 13:38:00,41.3,25.5,30.13,NE,38,0.0,6.0,53,0.00,,---,0.00,VWS V13.01,2013-02-25 18:38:00,
2013-02-25 13:39:00,41.3,25.5,30.13,SE,139,2.0,6.0,53,0.00,,---,0.00,VWS V13.01,2013-02-25 18:39:00,
2013-02-25 13:41:00,41.3,25.5,30.13,SE,140,2.0,6.0,53,0.00,,---,0.00,VWS V13.01,2013-02-25 18:41:00,
2013-02-25 13:42:00,41.3,25.0,30.13,SE,136,0.0,6.0,52,0.00,,---,0.00,VWS V13.01,2013-02-25 18:42:00,
2013-02-25 13:43:00,41.3,25.0,30.13,SE,136,0.0,6.0,52,0.00,,---,0.00,VWS V13.01,2013-02-25 18:43:00,
2013-02-25 13:44:00,41.3,25.0,30.13,ENE,68,5.0,6.0,52,0.00,,---,0.00,VWS V13.01,2013-02-25 18:44:00,
2013-02-25 13:46:00,41.3,25.5,30.12,ENE,61,0.0,6.0,53,0.00,,---,0.00,VWS V13.01,2013-02-25 18:46:00,
2013-02-25 13:47:00,41.3,25.9,30.12,ENE,66,2.0,6.0,54,0.00,,---,0.00,VWS V13.01,2013-02-25 18:47:00,
2013-02-25 13:48:00,41.3,25.9,30.12,ENE,67,1.0,6.0,54,0.00,,---,0.00,VWS V13.01,2013-02-25 18:48:00,
2013-02-25 13:49:00,41.4,25.6,30.13,ESE,110,0.0,6.0,53,0.00,,---,0.00,VWS V13.01,2013-02-25 18:49:00,
2013-02-25 13:51:00,41.4,26.0,30.13,ESE,105,1.0,6.0,54,0.00,,---,0.00,VWS V13.01,2013-02-25 18:51:00,
2013-02-25 13:52:00,41.4,26.0,30.12,SSE,161,2.0,6.0,54,0.00,,---,0.00,VWS V13.01,2013-02-25 18:52:00,
2013-02-25 13:53:00,41.4,26.0,30.12,ENE,63,4.0,6.0,54,0.00,,---,0.00,VWS V13.01,2013-02-25 18:53:00,
2013-02-25 13:54:00,41.5,25.7,30.13,NE,48,5.0,7.0,53,0.00,,---,0.00,VWS V13.01,2013-02-25 18:54:00,
2013-02-25 13:56:00,41.5,25.7,30.13,ENE,58,0.0,7.0,53,0.00,,---,0.00,VWS V13.01,2013-02-25 18:56:00,
2013-02-25 13:57:00,41.5,25.7,30.13,ENE,60,2.0,7.0,53,0.00,,---,0.00,VWS V13.01,2013-02-25 18:57:00,
2013-02-25 13:58:00,41.5,25.7,30.12,East,101,4.0,7.0,53,0.00,,---,0.00,VWS V13.01,2013-02-25 18:58:00,
2013-02-25 13:59:00,41.5,25.7,30.12,ESE,107,2.0,7.0,53,0.00,,---,0.00,VWS V13.01,2013-02-25 18:59:00,
2013-02-25 14:01:00,41.5,25.2,30.12,ESE,109,2.0,4.0,52,0.00,,---,0.00,VWS V13.01,2013-02-25 19:01:00,
2013-02-25 14:02:00,41.5,25.2,30.12,ESE,108,2.0,4.0,52,0.00,,---,0.00,VWS V13.01,2013-02-25 19:02:00,
2013-02-25 14:03:00,41.5,25.2,30.12,East,91,0.0,4.0,52,0.00,,---,0.00,VWS V13.01,2013-02-25 19:03:00,
2013-02-25 14:05:00,41.5,25.2,30.12,SE,137,0.0,4.0,52,0.00,,---,0.00,VWS V13.01,2013-02-25 19:05:00,
2013-02-25 14:06:00,41.5,25.2,30.12,ENE,61,0.0,4.0,52,0.00,,---,0.00,VWS V13.01,2013-02-25 19:06:00,
2013-02-25 14:07:00,41.5,25.2,30.12,NE,48,0.0,4.0,52,0.00,,---,0.00,VWS V13.01,2013-02-25 19:07:00,
2013-02-25 14:08:00,41.5,25.2,30.12,NE,49,0.0,4.0,52,0.00,,---,0.00,VWS V13.01,2013-02-25 19:08:00,
2013-02-25 14:10:00,41.6,25.8,30.12,NE,47,0.0,4.0,53,0.00,,---,0.00,VWS V13.01,2013-02-25 19:10:00,
2013-02-25 14:11:00,41.5,25.2,30.12,NNE,32,2.0,7.0,52,0.00,,---,0.00,VWS V13.01,2013-02-25 19:11:00,
2013-02-25 14:13:00,41.6,26.2,30.12,NNE,32,0.0,7.0,54,0.00,,---,0.00,VWS V13.01,2013-02-25 19:13:00,
2013-02-25 14:15:00,41.6,26.2,30.12,NNE,32,0.0,7.0,54,0.00,,---,0.00,VWS V13.01,2013-02-25 19:15:00,
2013-02-25 14:17:00,41.7,25.9,30.12,NE,46,6.0,7.0,53,0.00,,---,0.00,VWS V13.01,2013-02-25 19:17:00,
2013-02-25 14:18:00,41.6,25.3,30.11,ENE,63,3.0,7.0,52,0.00,,---,0.00,VWS V13.01,2013-02-25 19:18:00,
2013-02-25 14:20:00,41.6,25.3,30.11,NE,51,0.0,7.0,52,0.00,,---,0.00,VWS V13.01,2013-02-25 19:20:00,
2013-02-25 14:22:00,41.6,25.3,30.12,NE,51,0.0,7.0,52,0.00,,---,0.00,VWS V13.01,2013-02-25 19:22:00,
2013-02-25 14:23:00,41.6,25.8,30.12,East,98,0.0,7.0,53,0.00,,---,0.00,VWS V13.01,2013-02-25 19:23:00,
2013-02-25 14:24:00,41.6,25.8,30.12,East,98,0.0,7.0,53,0.00,,---,0.00,VWS V13.01,2013-02-25 19:24:00,
2013-02-25 14:25:00,41.6,25.8,30.12,East,99,0.0,7.0,53,0.00,,---,0.00,VWS V13.01,2013-02-25 19:25:00,
2013-02-25 14:27:00,41.6,25.8,30.12,SE,132,0.0,7.0,53,0.00,,---,0.00,VWS V13.01,2013-02-25 19:27:00,
2013-02-25 14:28:00,41.6,26.2,30.12,SE,131,0.0,7.0,54,0.00,,---,0.00,VWS V13.01,2013-02-25 19:28:00,
2013-02-25 14:29:00,41.7,25.9,30.12,ESE,123,0.0,7.0,53,0.00,,---,0.00,VWS V13.01,2013-02-25 19:29:00,
2013-02-25 14:30:00,41.6,25.8,30.12,ESE,123,0.0,7.0,53,0.00,,---,0.00,VWS V13.01,2013-02-25 19:30:00,
2013-02-25 14:32:00,41.7,25.9,30.12,ESE,103,0.0,2.0,53,0.00,,---,0.00,VWS V13.01,2013-02-25 19:32:00,
2013-02-25 14:33:00,41.7,25.9,30.11,ESE,103,0.0,2.0,53,0.00,,---,0.00,VWS V13.01,2013-02-25 19:33:00,
2013-02-25 14:34:00,41.7,25.9,30.11,NE,53,2.0,5.0,53,0.00,,---,0.00,VWS V13.01,2013-02-25 19:34:00,
2013-02-25 14:35:00,41.7,25.9,30.11,ENE,62,2.0,5.0,53,0.00,,---,0.00,VWS V13.01,2013-02-25 19:35:00,
2013-02-25 14:37:00,41.6,25.3,30.11,ENE,71,5.0,5.0,52,0.00,,---,0.00,VWS V13.01,2013-02-25 19:37:00,
2013-02-25 14:38:00,41.6,25.8,30.12,East,99,0.0,5.0,53,0.00,,---,0.00,VWS V13.01,2013-02-25 19:38:00,
2013-02-25 14:40:00,41.6,25.8,30.12,East,99,0.0,5.0,53,0.00,,---,0.00,VWS V13.01,2013-02-25 19:40:00,
2013-02-25 14:42:00,41.6,25.8,30.11,NE,47,1.0,5.0,53,0.00,,---,0.00,VWS V13.01,2013-02-25 19:42:00,
2013-02-25 14:43:00,41.6,25.8,30.11,NE,49,1.0,5.0,53,0.00,,---,0.00,VWS V13.01,2013-02-25 19:43:00,
2013-02-25 14:45:00,41.6,25.3,30.11,NE,48,0.0,5.0,52,0.00,,---,0.00,VWS V13.01,2013-02-25 19:45:00,
2013-02-25 14:47:00,41.6,25.8,30.11,ENE,65,1.0,5.0,53,0.00,,---,0.00,VWS V13.01,2013-02-25 19:47:00,
2013-02-25 14:48:00,41.6,25.8,30.11,ENE,65,0.0,5.0,53,0.00,,---,0.00,VWS V13.01,2013-02-25 19:48:00,
2013-02-25 14:50:00,41.6,26.2,30.11,NE,34,1.0,6.0,54,0.00,,---,0.00,VWS V13.01,2013-02-25 19:50:00,
2013-02-25 14:51:00,41.6,26.2,30.11,NNE,22,3.0,6.0,54,0.00,,---,0.00,VWS V13.01,2013-02-25 19:51:00,
2013-02-25 14:52:00,41.6,26.2,30.11,NNE,22,3.0,6.0,54,0.00,,---,0.00,VWS V13.01,2013-02-25 19:52:00,
2013-02-25 14:53:00,41.6,25.8,30.11,NNE,25,2.0,6.0,53,0.00,,---,0.00,VWS V13.01,2013-02-25 19:53:00,
2013-02-25 14:55:00,41.6,25.8,30.11,NE,48,0.0,6.0,53,0.00,,---,0.00,VWS V13.01,2013-02-25 19:55:00,
2013-02-25 14:56:00,41.6,25.8,30.11,NE,49,0.0,6.0,53,0.00,,---,0.00,VWS V13.01,2013-02-25 19:56:00,
2013-02-25 14:57:00,41.6,25.8,30.11,NE,44,2.0,6.0,53,0.00,,---,0.00,VWS V13.01,2013-02-25 19:57:00,
2013-02-25 14:58:00,41.6,25.8,30.10,NE,37,2.0,6.0,53,0.00,,---,0.00,VWS V13.01,2013-02-25 19:58:00,
2013-02-25 15:00:00,41.6,25.8,30.11,NNE,33,1.0,9.0,53,0.00,,---,0.00,VWS V13.01,2013-02-25 20:00:00,
2013-02-25 15:01:00,41.6,25.8,30.11,NE,34,0.0,9.0,53,0.00,,---,0.00,VWS V13.01,2013-02-25 20:01:00,
2013-02-25 15:02:00,41.7,26.3,30.11,NNE,33,0.0,0.0,54,0.00,,---,0.00,VWS V13.01,2013-02-25 20:02:00,
2013-02-25 15:03:00,41.7,26.3,30.11,NE,34,0.0,1.0,54,0.00,,---,0.00,VWS V13.01,2013-02-25 20:03:00,
2013-02-25 15:05:00,41.7,25.9,30.11,NE,51,6.0,7.0,53,0.00,,---,0.00,VWS V13.01,2013-02-25 20:05:00,
2013-02-25 15:06:00,41.7,25.9,30.11,NE,44,4.0,7.0,53,0.00,,---,0.00,VWS V13.01,2013-02-25 20:06:00,
2013-02-25 15:07:00,41.7,25.9,30.11,ENE,57,3.0,7.0,53,0.00,,---,0.00,VWS V13.01,2013-02-25 20:07:00,
2013-02-25 15:09:00,41.7,25.9,30.11,ENE,64,3.0,7.0,53,0.00,,---,0.00,VWS V13.01,2013-02-25 20:09:00,
2013-02-25 15:10:00,41.7,25.9,30.11,ENE,66,0.0,7.0,53,0.00,,---,0.00,VWS V13.01,2013-02-25 20:10:00,
2013-02-25 15:11:00,41.6,25.8,30.11,East,81,4.0,7.0,53,0.00,,---,0.00,VWS V13.01,2013-02-25 20:11:00,
2013-02-25 15:12:00,41.6,25.8,30.11,ESE,113,0.0,7.0,53,0.00,,---,0.00,VWS V13.01,2013-02-25 20:12:00,
2013-02-25 15:14:00,41.7,25.9,30.11,NNE,32,3.0,7.0,53,0.00,,---,0.00,VWS V13.01,2013-02-25 20:14:00,
2013-02-25 15:15:00,41.6,25.8,30.10,NE,43,4.0,7.0,53,0.00,,---,0.00,VWS V13.01,2013-02-25 20:15:00,
2013-02-25 15:16:00,41.6,25.8,30.10,NE,47,2.0,7.0,53,0.00,,---,0.00,VWS V13.01,2013-02-25 20:16:00,
2013-02-25 15:17:00,41.6,25.8,30.10,NE,47,0.0,7.0,53,0.00,,---,0.00,VWS V13.01,2013-02-25 20:17:00,
2013-02-25 15:19:00,41.6,25.8,30.10,NE,49,4.0,7.0,53,0.00,,---,0.00,VWS V13.01,2013-02-25 20:19:00,
2013-02-25 15:21:00,41.5,25.7,30.10,NE,47,6.0,7.0,53,0.00,,---,0.00,VWS V13.01,2013-02-25 20:21:00,
2013-02-25 15:23:00,41.5,25.7,30.10,NE,46,2.0,7.0,53,0.00,,---,0.00,VWS V13.01,2013-02-25 20:23:00,
2013-02-25 15:24:00,41.4,25.6,30.11,NE,46,3.0,7.0,53,0.00,,---,0.00,VWS V13.01,2013-02-25 20:24:00,
2013-02-25 15:26:00,41.4,26.0,30.11,NE,47,0.0,7.0,54,0.00,,---,0.00,VWS V13.01,2013-02-25 20:26:00,
2013-02-25 15:28:00,41.4,26.0,30.11,NE,45,0.0,7.0,54,0.00,,---,0.00,VWS V13.01,2013-02-25 20:28:00,
2013-02-25 15:29:00,41.4,26.0,30.11,NE,45,1.0,7.0,54,0.00,,---,0.00,VWS V13.01,2013-02-25 20:29:00,
2013-02-25 15:31:00,41.4,26.5,30.11,NE,45,0.0,7.0,55,0.00,,---,0.00,VWS V13.01,2013-02-25 20:31:00,
2013-02-25 15:33:00,41.4,26.0,30.11,NE,46,0.0,0.0,54,0.00,,---,0.00,VWS V13.01,2013-02-25 20:33:00,
2013-02-25 15:35:00,41.3,25.9,30.11,NE,46,3.0,4.0,54,0.00,,---,0.00,VWS V13.01,2013-02-25 20:35:00,
2013-02-25 15:36:00,41.3,25.9,30.11,NE,42,6.0,7.0,54,0.00,,---,0.00,VWS V13.01,2013-02-25 20:36:00,
2013-02-25 15:38:00,41.3,25.9,30.11,NE,45,1.0,7.0,54,0.00,,---,0.00,VWS V13.01,2013-02-25 20:38:00,
2013-02-25 15:40:00,41.3,26.4,30.10,NE,46,3.0,7.0,55,0.00,,---,0.00,VWS V13.01,2013-02-25 20:40:00,
2013-02-25 15:41:00,41.3,26.4,30.10,ENE,60,5.0,7.0,55,0.00,,---,0.00,VWS V13.01,2013-02-25 20:41:00,
2013-02-25 15:43:00,41.3,25.9,30.10,ENE,70,1.0,7.0,54,0.00,,---,0.00,VWS V13.01,2013-02-25 20:43:00,
2013-02-25 15:46:00,41.3,25.9,30.10,NE,38,2.0,7.0,54,0.00,,---,0.00,VWS V13.01,2013-02-25 20:46:00,
2013-02-25 15:48:00,41.3,25.9,30.10,NE,40,0.0,7.0,54,0.00,,---,0.00,VWS V13.01,2013-02-25 20:48:00,
2013-02-25 15:51:00,41.2,25.8,30.11,NE,40,0.0,7.0,54,0.00,,---,0.00,VWS V13.01,2013-02-25 20:51:00,
2013-02-25 15:53:00,41.2,25.8,30.10,NE,42,3.0,7.0,54,0.00,,---,0.00,VWS V13.01,2013-02-25 20:53:00,
2013-02-25 15:56:00,41.2,25.8,30.10,East,101,0.0,7.0,54,0.00,,---,0.00,VWS V13.01,2013-02-25 20:56:00,
2013-02-25 15:58:00,41.2,25.8,30.10,NE,35,6.0,7.0,54,0.00,,---,0.00,VWS V13.01,2013-02-25 20:58:00,
2013-02-25 16:01:00,41.3,26.4,30.10,NE,36,3.0,6.0,55,0.00,,---,0.00,VWS V13.01,2013-02-25 21:01:00,
2013-02-25 16:03:00,41.3,26.4,30.11,NE,41,0.0,6.0,55,0.00,,---,0.00,VWS V13.01,2013-02-25 21:03:00,
2013-02-25 16:06:00,41.3,26.8,30.10,ENE,76,3.0,6.0,56,0.00,,---,0.00,VWS V13.01,2013-02-25 21:06:00,
2013-02-25 16:07:00,41.3,26.8,30.10,ENE,75,0.0,6.0,56,0.00,,---,0.00,VWS V13.01,2013-02-25 21:07:00,
2013-02-25 16:08:00,41.3,26.4,30.10,ESE,105,1.0,6.0,55,0.00,,---,0.00,VWS V13.01,2013-02-25 21:08:00,
2013-02-25 16:11:00,41.3,25.9,30.10,East,81,3.0,6.0,54,0.00,,---,0.00,VWS V13.01,2013-02-25 21:11:00,
2013-02-25 16:12:00,41.4,26.0,30.10,ENE,77,3.0,6.0,54,0.00,,---,0.00,VWS V13.01,2013-02-25 21:12:00,
2013-02-25 16:13:00,41.4,26.0,30.10,East,84,3.0,6.0,54,0.00,,---,0.00,VWS V13.01,2013-02-25 21:13:00,
2013-02-25 16:16:00,41.4,26.0,30.11,East,94,3.0,6.0,54,0.00,,---,0.00,VWS V13.01,2013-02-25 21:16:00,
2013-02-25 16:17:00,41.4,26.0,30.11,East,82,2.0,6.0,54,0.00,,---,0.00,VWS V13.01,2013-02-25 21:17:00,
2013-02-25 16:18:00,41.4,26.0,30.11,North,360,3.0,6.0,54,0.00,,---,0.00,VWS V13.01,2013-02-25 21:18:00,
2013-02-25 16:21:00,41.4,26.0,30.10,NE,51,4.0,7.0,54,0.00,,---,0.00,VWS V13.01,2013-02-25 21:21:00,
2013-02-25 16:22:00,41.4,26.0,30.10,NE,49,4.0,7.0,54,0.00,,---,0.00,VWS V13.01,2013-02-25 21:22:00,
2013-02-25 16:23:00,41.4,26.0,30.10,NE,45,1.0,8.0,54,0.00,,---,0.00,VWS V13.01,2013-02-25 21:23:00,
2013-02-25 16:27:00,41.4,26.0,30.10,NE,45,0.0,8.0,54,0.00,,---,0.00,VWS V13.01,2013-02-25 21:27:00,
2013-02-25 16:28:00,41.4,26.5,30.10,ENE,61,6.0,8.0,55,0.00,,---,0.00,VWS V13.01,2013-02-25 21:28:00,
2013-02-25 16:32:00,41.5,26.5,30.10,NE,46,0.0,0.0,55,0.00,,---,0.00,VWS V13.01,2013-02-25 21:32:00,
2013-02-25 16:33:00,41.5,26.5,30.10,NE,43,2.0,4.0,55,0.00,,---,0.00,VWS V13.01,2013-02-25 21:33:00,
2013-02-25 16:37:00,41.5,26.1,30.10,NE,50,0.0,8.0,54,0.00,,---,0.00,VWS V13.01,2013-02-25 21:37:00,
2013-02-25 16:39:00,41.5,26.5,30.10,NE,51,4.0,8.0,55,0.00,,---,0.00,VWS V13.01,2013-02-25 21:39:00,
2013-02-25 16:42:00,41.5,26.1,30.10,NNE,27,0.0,9.0,54,0.00,,---,0.00,VWS V13.01,2013-02-25 21:42:00,
2013-02-25 16:44:00,41.5,26.1,30.10,NNE,27,0.0,9.0,54,0.00,,---,0.00,VWS V13.01,2013-02-25 21:44:00,
2013-02-25 16:47:00,41.5,26.5,30.10,NNE,30,1.0,9.0,55,0.00,,---,0.00,VWS V13.01,2013-02-25 21:47:00,
2013-02-25 16:49:00,41.5,26.5,30.10,NE,38,5.0,9.0,55,0.00,,---,0.00,VWS V13.01,2013-02-25 21:49:00,
2013-02-25 16:52:00,41.4,26.0,30.10,ENE,65,4.0,9.0,54,0.00,,---,0.00,VWS V13.01,2013-02-25 21:52:00,
2013-02-25 16:54:00,41.4,26.0,30.10,ENE,65,4.0,9.0,54,0.00,,---,0.00,VWS V13.01,2013-02-25 21:54:00,
2013-02-25 16:57:00,41.3,26.4,30.10,NE,47,0.0,9.0,55,0.00,,---,0.00,VWS V13.01,2013-02-25 21:57:00,
2013-02-25 16:59:00,41.3,26.4,30.10,NE,34,1.0,9.0,55,0.00,,---,0.00,VWS V13.01,2013-02-25 21:59:00,
2013-02-25 17:02:00,41.3,26.4,30.09,NE,56,0.0,4.0,55,0.00,,---,0.00,VWS V13.01,2013-02-25 22:02:00,
2013-02-25 17:05:00,41.2,26.7,30.09,ENE,70,3.0,8.0,56,0.00,,---,0.00,VWS V13.01,2013-02-25 22:05:00,
2013-02-25 17:07:00,41.2,26.3,30.09,ENE,76,4.0,8.0,55,0.00,,---,0.00,VWS V13.01,2013-02-25 22:07:00,
2013-02-25 17:08:00,41.1,26.2,30.09,East,88,4.0,8.0,55,0.00,,---,0.00,VWS V13.01,2013-02-25 22:08:00,
2013-02-25 17:10:00,41.1,26.2,30.09,ESE,110,2.0,8.0,55,0.00,,---,0.00,VWS V13.01,2013-02-25 22:10:00,
2013-02-25 17:12:00,41.1,26.2,30.09,ENE,61,1.0,8.0,55,0.00,,---,0.00,VWS V13.01,2013-02-25 22:12:00,
2013-02-25 17:13:00,41.1,26.2,30.09,ENE,66,7.0,9.0,55,0.00,,---,0.00,VWS V13.01,2013-02-25 22:13:00,
2013-02-25 17:15:00,41.0,26.1,30.09,ENE,59,3.0,9.0,55,0.00,,---,0.00,VWS V13.01,2013-02-25 22:15:00,
2013-02-25 17:17:00,40.9,26.0,30.10,NE,51,5.0,9.0,55,0.00,,---,0.00,VWS V13.01,2013-02-25 22:17:00,
2013-02-25 17:18:00,40.9,26.0,30.10,NE,56,3.0,9.0,55,0.00,,---,0.00,VWS V13.01,2013-02-25 22:18:00,
2013-02-25 17:20:00,40.9,26.0,30.09,NE,42,4.0,10.0,55,0.00,,---,0.00,VWS V13.01,2013-02-25 22:20:00,
2013-02-25 17:23:00,40.8,25.9,30.09,ENE,61,2.0,10.0,55,0.00,,---,0.00,VWS V13.01,2013-02-25 22:23:00,
2013-02-25 17:25:00,40.7,26.2,30.09,East,84,4.0,10.0,56,0.00,,---,0.00,VWS V13.01,2013-02-25 22:25:00,
2013-02-25 17:28:00,40.7,25.8,30.10,NE,46,0.0,10.0,55,0.00,,---,0.00,VWS V13.01,2013-02-25 22:28:00,
2013-02-25 17:30:00,40.7,25.8,30.09,ENE,58,4.0,10.0,55,0.00,,---,0.00,VWS V13.01,2013-02-25 22:30:00,
2013-02-25 17:33:00,40.6,26.1,30.10,East,85,5.0,6.0,56,0.00,,---,0.00,VWS V13.01,2013-02-25 22:33:00,
2013-02-25 17:34:00,40.6,26.1,30.10,East,82,3.0,9.0,56,0.00,,---,0.00,VWS V13.01,2013-02-25 22:34:00,
2013-02-25 17:35:00,40.6,26.1,30.10,ENE,76,3.0,9.0,56,0.00,,---,0.00,VWS V13.01,2013-02-25 22:35:00,
2013-02-25 17:38:00,40.5,26.0,30.10,ENE,72,0.0,9.0,56,0.00,,---,0.00,VWS V13.01,2013-02-25 22:38:00,
2013-02-25 17:39:00,40.5,26.0,30.10,ENE,72,4.0,9.0,56,0.00,,---,0.00,VWS V13.01,2013-02-25 22:39:00,
2013-02-25 17:40:00,40.5,26.0,30.11,ENE,69,0.0,9.0,56,0.00,,---,0.00,VWS V13.01,2013-02-25 22:40:00,
2013-02-25 17:43:00,40.5,26.0,30.11,NE,55,0.0,9.0,56,0.00,,---,0.00,VWS V13.01,2013-02-25 22:43:00,
2013-02-25 17:44:00,40.4,26.0,30.11,East,79,0.0,9.0,56,0.00,,---,0.00,VWS V13.01,2013-02-25 22:44:00,
2013-02-25 17:46:00,40.4,26.0,30.10,East,79,0.0,9.0,56,0.00,,---,0.00,VWS V13.01,2013-02-25 22:46:00,
2013-02-25 17:48:00,40.4,26.0,30.10,ENE,76,1.0,9.0,56,0.00,,---,0.00,VWS V13.01,2013-02-25 22:48:00,
2013-02-25 17:49:00,40.4,26.0,30.10,ENE,64,6.0,9.0,56,0.00,,---,0.00,VWS V13.01,2013-02-25 22:49:00,
2013-02-25 17:51:00,40.2,25.8,30.11,ENE,59,5.0,9.0,56,0.00,,---,0.00,VWS V13.01,2013-02-25 22:51:00,
2013-02-25 17:53:00,40.2,25.8,30.11,ENE,67,0.0,9.0,56,0.00,,---,0.00,VWS V13.01,2013-02-25 22:53:00,
2013-02-25 17:54:00,40.2,25.8,30.11,ENE,67,0.0,9.0,56,0.00,,---,0.00,VWS V13.01,2013-02-25 22:54:00,
2013-02-25 17:56:00,40.2,25.8,30.11,ENE,67,0.0,9.0,56,0.00,,---,0.00,VWS V13.01,2013-02-25 22:56:00,
2013-02-25 17:58:00,40.1,25.7,30.11,ENE,67,0.0,9.0,56,0.00,,---,0.00,VWS V13.01,2013-02-25 22:58:00,
2013-02-25 17:59:00,40.1,25.7,30.11,ENE,67,0.0,9.0,56,0.00,,---,0.00,VWS V13.01,2013-02-25 22:59:00,
2013-02-25 18:01:00,40.1,25.7,30.11,ENE,67,0.0,9.0,56,0.00,,---,0.00,VWS V13.01,2013-02-25 23:01:00,
2013-02-25 18:03:00,40.0,26.0,30.10,ENE,67,0.0,5.0,57,0.00,,---,0.00,VWS V13.01,2013-02-25 23:03:00,
2013-02-25 18:04:00,40.0,26.0,30.10,ENE,67,0.0,5.0,57,0.00,,---,0.00,VWS V13.01,2013-02-25 23:04:00,
2013-02-25 18:06:00,39.9,25.9,30.11,ENE,65,0.0,5.0,57,0.00,,---,0.00,VWS V13.01,2013-02-25 23:06:00,
2013-02-25 18:08:00,39.9,25.9,30.11,ENE,60,0.0,6.0,57,0.00,,---,0.00,VWS V13.01,2013-02-25 23:08:00,
2013-02-25 18:09:00,39.9,25.9,30.11,ENE,60,0.0,6.0,57,0.00,,---,0.00,VWS V13.01,2013-02-25 23:09:00,
2013-02-25 18:11:00,39.8,25.8,30.11,ENE,61,0.0,6.0,57,0.00,,---,0.00,VWS V13.01,2013-02-25 23:11:00,
2013-02-25 18:13:00,39.7,25.7,30.11,ENE,60,0.0,6.0,57,0.00,,---,0.00,VWS V13.01,2013-02-25 23:13:00,
2013-02-25 18:14:00,39.7,25.7,30.11,ENE,60,3.0,6.0,57,0.00,,---,0.00,VWS V13.01,2013-02-25 23:14:00,
2013-02-25 18:16:00,39.7,25.7,30.11,ENE,61,3.0,6.0,57,0.00,,---,0.00,VWS V13.01,2013-02-25 23:16:00,
2013-02-25 18:18:00,39.6,25.6,30.11,ENE,67,0.0,6.0,57,0.00,,---,0.00,VWS V13.01,2013-02-25 23:18:00,
2013-02-25 18:19:00,39.6,25.6,30.12,East,84,2.0,6.0,57,0.00,,---,0.00,VWS V13.01,2013-02-25 23:19:00,
2013-02-25 18:21:00,39.5,25.5,30.12,East,84,0.0,6.0,57,0.00,,---,0.00,VWS V13.01,2013-02-25 23:21:00,
2013-02-25 18:23:00,39.5,25.5,30.12,East,84,0.0,6.0,57,0.00,,---,0.00,VWS V13.01,2013-02-25 23:23:00,
2013-02-25 18:24:00,39.5,25.5,30.11,East,84,0.0,6.0,57,0.00,,---,0.00,VWS V13.01,2013-02-25 23:24:00,
2013-02-25 18:25:00,39.4,25.5,30.11,East,84,0.0,6.0,57,0.00,,---,0.00,VWS V13.01,2013-02-25 23:25:00,
2013-02-25 18:27:00,39.4,25.9,30.11,ENE,74,0.0,6.0,58,0.00,,---,0.00,VWS V13.01,2013-02-25 23:27:00,
2013-02-25 18:28:00,39.3,25.8,30.11,ENE,74,0.0,6.0,58,0.00,,---,0.00,VWS V13.01,2013-02-25 23:28:00,
2013-02-25 18:29:00,39.3,25.8,30.11,ENE,74,1.0,6.0,58,0.00,,---,0.00,VWS V13.01,2013-02-25 23:29:00,
2013-02-25 18:30:00,39.3,25.8,30.11,ENE,74,0.0,6.0,58,0.00,,---,0.00,VWS V13.01,2013-02-25 23:30:00,
2013-02-25 18:32:00,39.3,25.8,30.11,ENE,74,0.0,1.0,58,0.00,,---,0.00,VWS V13.01,2013-02-25 23:32:00,
2013-02-25 18:34:00,39.2,25.7,30.11,ENE,69,2.0,3.0,58,0.00,,---,0.00,VWS V13.01,2013-02-25 23:34:00,
2013-02-25 18:35:00,39.1,25.6,30.11,ENE,68,0.0,3.0,58,0.00,,---,0.00,VWS V13.01,2013-02-25 23:35:00,
2013-02-25 18:37:00,39.1,25.6,30.11,ENE,67,0.0,4.0,58,0.00,,---,0.00,VWS V13.01,2013-02-25 23:37:00,
2013-02-25 18:39:00,39.0,25.5,30.11,NE,44,3.0,5.0,58,0.00,,---,0.00,VWS V13.01,2013-02-25 23:39:00,
2013-02-25 18:40:00,38.9,25.8,30.11,NE,53,4.0,6.0,59,0.00,,---,0.00,VWS V13.01,2013-02-25 23:40:00,
2013-02-25 18:42:00,38.8,25.7,30.11,NE,46,0.0,6.0,59,0.00,,---,0.00,VWS V13.01,2013-02-25 23:42:00,
2013-02-25 18:44:00,38.8,25.7,30.11,NE,46,0.0,6.0,59,0.00,,---,0.00,VWS V13.01,2013-02-25 23:44:00,
2013-02-25 18:46:00,38.7,25.6,30.11,NE,46,0.0,6.0,59,0.00,,---,0.00,VWS V13.01,2013-02-25 23:46:00,
2013-02-25 18:47:00,38.6,25.5,30.11,NE,50,0.0,6.0,59,0.00,,---,0.00,VWS V13.01,2013-02-25 23:47:00,
2013-02-25 18:49:00,38.6,25.5,30.11,NE,49,0.0,6.0,59,0.00,,---,0.00,VWS V13.01,2013-02-25 23:49:00,
2013-02-25 18:51:00,38.5,25.4,30.11,NE,52,1.0,6.0,59,0.00,,---,0.00,VWS V13.01,2013-02-25 23:51:00,
2013-02-25 18:52:00,38.4,25.3,30.12,NE,56,1.0,6.0,59,0.00,,---,0.00,VWS V13.01,2013-02-25 23:52:00,
2013-02-25 18:54:00,38.4,25.3,30.12,NE,56,0.0,6.0,59,0.00,,---,0.00,VWS V13.01,2013-02-25 23:54:00,
2013-02-25 18:56:00,38.3,25.2,30.11,ENE,58,0.0,6.0,59,0.00,,---,0.00,VWS V13.01,2013-02-25 23:56:00,
2013-02-25 18:57:00,38.3,25.2,30.12,ENE,57,0.0,6.0,59,0.00,,---,0.00,VWS V13.01,2013-02-25 23:57:00,
2013-02-25 18:59:00,38.2,25.5,30.12,ENE,58,0.0,6.0,60,0.00,,---,0.00,VWS V13.01,2013-02-25 23:59:00,
2013-02-25 19:00:00,38.2,25.1,30.12,ENE,58,0.0,6.0,59,0.00,,---,0.00,VWS V13.01,2013-02-26 00:00:00,
2013-02-25 19:01:00,38.2,25.1,30.12,ENE,58,0.0,6.0,59,0.00,,---,0.00,VWS V13.01,2013-02-26 00:01:00,
2013-02-25 19:02:00,38.2,25.1,30.11,ENE,57,0.0,2.0,59,0.00,,---,0.00,VWS V13.01,2013-02-26 00:02:00,
2013-02-25 19:04:00,38.1,25.1,30.11,ENE,58,0.0,2.0,59,0.00,,---,0.00,VWS V13.01,2013-02-26 00:04:00,
2013-02-25 19:05:00,38.1,25.1,30.12,ENE,57,0.0,2.0,59,0.00,,---,0.00,VWS V13.01,2013-02-26 00:05:00,
2013-02-25 19:06:00,38.1,25.1,30.12,ENE,57,0.0,4.0,59,0.00,,---,0.00,VWS V13.01,2013-02-26 00:06:00,
2013-02-25 19:07:00,38.0,25.4,30.12,ENE,58,0.0,4.0,60,0.00,,---,0.00,VWS V13.01,2013-02-26 00:07:00,
2013-02-25 19:09:00,38.0,25.4,30.12,ENE,58,0.0,4.0,60,0.00,,---,0.00,VWS V13.01,2013-02-26 00:09:00,
2013-02-25 19:10:00,37.9,25.3,30.12,ENE,58,0.0,4.0,60,0.00,,---,0.00,VWS V13.01,2013-02-26 00:10:00,
2013-02-25 19:11:00,37.9,25.3,30.12,ENE,58,0.0,4.0,60,0.00,,---,0.00,VWS V13.01,2013-02-26 00:11:00,
2013-02-25 19:12:00,37.9,25.3,30.12,ENE,57,0.0,4.0,60,0.00,,---,0.00,VWS V13.01,2013-02-26 00:12:00,
2013-02-25 19:14:00,37.9,25.3,30.12,ENE,57,0.0,4.0,60,0.00,,---,0.00,VWS V13.01,2013-02-26 00:14:00,
2013-02-25 19:15:00,37.9,25.3,30.12,ENE,57,0.0,4.0,60,0.00,,---,0.00,VWS V13.01,2013-02-26 00:15:00,
2013-02-25 19:16:00,37.8,25.2,30.12,ENE,58,0.0,4.0,60,0.00,,---,0.00,VWS V13.01,2013-02-26 00:16:00,
2013-02-25 19:17:00,37.8,25.6,30.12,ENE,58,0.0,4.0,61,0.00,,---,0.00,VWS V13.01,2013-02-26 00:17:00,
2013-02-25 19:19:00,37.7,25.5,30.12,ENE,57,0.0,4.0,61,0.00,,---,0.00,VWS V13.01,2013-02-26 00:19:00,
2013-02-25 19:20:00,37.7,25.5,30.12,ENE,58,0.0,4.0,61,0.00,,---,0.00,VWS V13.01,2013-02-26 00:20:00,
2013-02-25 19:21:00,37.6,25.4,30.12,ENE,58,0.0,4.0,61,0.00,,---,0.00,VWS V13.01,2013-02-26 00:21:00,
2013-02-25 19:22:00,37.6,25.8,30.12,ENE,58,0.0,4.0,62,0.00,,---,0.00,VWS V13.01,2013-02-26 00:22:00,
2013-02-25 19:24:00,37.6,25.8,30.12,ENE,58,1.0,4.0,62,0.00,,---,0.00,VWS V13.01,2013-02-26 00:24:00,
2013-02-25 19:25:00,37.5,25.7,30.12,ENE,58,1.0,4.0,62,0.00,,---,0.00,VWS V13.01,2013-02-26 00:25:00,
2013-02-25 19:26:00,37.5,25.7,30.12,ENE,57,0.0,4.0,62,0.00,,---,0.00,VWS V13.01,2013-02-26 00:26:00,
2013-02-25 19:28:00,37.4,25.6,30.12,ENE,58,0.0,4.0,62,0.00,,---,0.00,VWS V13.01,2013-02-26 00:28:00,
2013-02-25 19:29:00,37.4,25.6,30.13,ENE,58,3.0,4.0,62,0.00,,---,0.00,VWS V13.01,2013-02-26 00:29:00,
2013-02-25 19:30:00,37.3,25.5,30.13,ENE,57,0.0,4.0,62,0.00,,---,0.00,VWS V13.01,2013-02-26 00:30:00,
2013-02-25 19:31:00,37.3,25.5,30.13,ENE,57,0.0,2.0,62,0.00,,---,0.00,VWS V13.01,2013-02-26 00:31:00,
2013-02-25 19:33:00,37.3,25.5,30.13,ENE,58,0.0,3.0,62,0.00,,---,0.00,VWS V13.01,2013-02-26 00:33:00,
2013-02-25 19:34:00,37.2,25.4,30.13,ENE,58,3.0,4.0,62,0.00,,---,0.00,VWS V13.01,2013-02-26 00:34:00,
2013-02-25 19:35:00,37.1,25.3,30.12,ENE,57,0.0,4.0,62,0.00,,---,0.00,VWS V13.01,2013-02-26 00:35:00,
2013-02-25 19:36:00,37.1,25.3,30.12,ENE,58,0.0,4.0,62,0.00,,---,0.00,VWS V13.01,2013-02-26 00:36:00,
2013-02-25 19:38:00,37.0,25.2,30.12,ENE,58,0.0,4.0,62,0.00,,---,0.00,VWS V13.01,2013-02-26 00:38:00,
2013-02-25 19:39:00,37.0,25.2,30.12,ENE,57,0.0,4.0,62,0.00,,---,0.00,VWS V13.01,2013-02-26 00:39:00,
2013-02-25 19:40:00,37.0,25.2,30.12,ENE,58,0.0,4.0,62,0.00,,---,0.00,VWS V13.01,2013-02-26 00:40:00,
2013-02-25 19:41:00,36.9,25.1,30.12,ENE,57,0.0,4.0,62,0.00,,---,0.00,VWS V13.01,2013-02-26 00:41:00,
2013-02-25 19:43:00,36.9,25.5,30.12,ENE,58,0.0,4.0,63,0.00,,---,0.00,VWS V13.01,2013-02-26 00:43:00,
2013-02-25 19:44:00,36.8,25.4,30.13,ENE,58,0.0,4.0,63,0.00,,---,0.00,VWS V13.01,2013-02-26 00:44:00,
2013-02-25 19:45:00,36.8,25.4,30.13,ENE,58,0.0,4.0,63,0.00,,---,0.00,VWS V13.01,2013-02-26 00:45:00,
2013-02-25 19:47:00,36.8,25.4,30.12,ENE,58,0.0,4.0,63,0.00,,---,0.00,VWS V13.01,2013-02-26 00:47:00,
2013-02-25 19:48:00,36.7,25.3,30.12,ENE,58,0.0,4.0,63,0.00,,---,0.00,VWS V13.01,2013-02-26 00:48:00,
2013-02-25 19:49:00,36.7,25.3,30.12,ENE,58,2.0,4.0,63,0.00,,---,0.00,VWS V13.01,2013-02-26 00:49:00,
2013-02-25 19:51:00,36.6,25.2,30.12,ENE,58,0.0,4.0,63,0.00,,---,0.00,VWS V13.01,2013-02-26 00:51:00,
2013-02-25 19:52:00,36.6,25.2,30.12,ENE,57,0.0,4.0,63,0.00,,---,0.00,VWS V13.01,2013-02-26 00:52:00,
2013-02-25 19:53:00,36.6,25.2,30.12,ENE,58,0.0,4.0,63,0.00,,---,0.00,VWS V13.01,2013-02-26 00:53:00,
2013-02-25 19:54:00,36.5,25.1,30.12,ENE,57,3.0,4.0,63,0.00,,---,0.00,VWS V13.01,2013-02-26 00:54:00,
2013-02-25 19:56:00,36.5,25.1,30.12,ENE,59,4.0,4.0,63,0.00,,---,0.00,VWS V13.01,2013-02-26 00:56:00,
2013-02-25 19:57:00,36.5,25.1,30.12,ENE,59,0.0,4.0,63,0.00,,---,0.00,VWS V13.01,2013-02-26 00:57:00,
2013-02-25 19:59:00,36.4,25.0,30.12,ENE,59,0.0,4.0,63,0.00,,---,0.00,VWS V13.01,2013-02-26 00:59:00,
2013-02-25 20:01:00,36.4,25.4,30.12,ENE,59,1.0,4.0,64,0.00,,---,0.00,VWS V13.01,2013-02-26 01:01:00,
2013-02-25 20:02:00,36.4,25.0,30.12,ENE,59,0.0,0.0,63,0.00,,---,0.00,VWS V13.01,2013-02-26 01:02:00,
2013-02-25 20:04:00,36.4,25.4,30.12,East,79,2.0,7.0,64,0.00,,---,0.00,VWS V13.01,2013-02-26 01:04:00,
2013-02-25 20:06:00,36.3,25.3,30.12,ENE,63,2.0,7.0,64,0.00,,---,0.00,VWS V13.01,2013-02-26 01:06:00,
2013-02-25 20:07:00,36.3,24.9,30.12,East,82,1.0,7.0,63,0.00,,---,0.00,VWS V13.01,2013-02-26 01:07:00,
2013-02-25 20:09:00,36.3,25.3,30.12,ENE,69,5.0,7.0,64,0.00,,---,0.00,VWS V13.01,2013-02-26 01:09:00,
2013-02-25 20:11:00,36.3,25.3,30.13,ENE,59,2.0,7.0,64,0.00,,---,0.00,VWS V13.01,2013-02-26 01:11:00,
2013-02-25 20:12:00,36.3,25.3,30.13,East,80,0.0,7.0,64,0.00,,---,0.00,VWS V13.01,2013-02-26 01:12:00,
2013-02-25 20:14:00,36.3,25.3,30.13,East,80,0.0,7.0,64,0.00,,---,0.00,VWS V13.01,2013-02-26 01:14:00,
2013-02-25 20:16:00,36.3,25.3,30.13,East,80,0.0,7.0,64,0.00,,---,0.00,VWS V13.01,2013-02-26 01:16:00,
2013-02-25 20:17:00,36.3,25.3,30.13,East,79,3.0,7.0,64,0.00,,---,0.00,VWS V13.01,2013-02-26 01:17:00,
2013-02-25 20:19:00,36.3,25.3,30.13,East,79,0.0,7.0,64,0.00,,---,0.00,VWS V13.01,2013-02-26 01:19:00,
2013-02-25 20:21:00,36.3,25.3,30.13,East,79,0.0,7.0,64,0.00,,---,0.00,VWS V13.01,2013-02-26 01:21:00,
2013-02-25 20:22:00,36.3,25.3,30.13,East,79,0.0,7.0,64,0.00,,---,0.00,VWS V13.01,2013-02-26 01:22:00,
2013-02-25 20:24:00,36.2,25.2,30.13,ENE,65,0.0,7.0,64,0.00,,---,0.00,VWS V13.01,2013-02-26 01:24:00,
2013-02-25 20:26:00,36.3,25.3,30.13,ENE,64,0.0,7.0,64,0.00,,---,0.00,VWS V13.01,2013-02-26 01:26:00,
2013-02-25 20:27:00,36.2,25.2,30.13,ENE,67,4.0,7.0,64,0.00,,---,0.00,VWS V13.01,2013-02-26 01:27:00,
2013-02-25 20:29:00,36.2,25.2,30.13,ENE,60,4.0,7.0,64,0.00,,---,0.00,VWS V13.01,2013-02-26 01:29:00,
2013-02-25 20:30:00,36.2,25.2,30.13,ENE,57,1.0,7.0,64,0.00,,---,0.00,VWS V13.01,2013-02-26 01:30:00,
2013-02-25 20:31:00,36.2,25.2,30.13,NE,51,4.0,7.0,64,0.00,,---,0.00,VWS V13.01,2013-02-26 01:31:00,
2013-02-25 20:32:00,36.2,25.2,30.13,ENE,72,3.0,5.0,64,0.00,,---,0.00,VWS V13.01,2013-02-26 01:32:00,
2013-02-25 20:34:00,36.2,25.2,30.12,ENE,78,0.0,5.0,64,0.00,,---,0.00,VWS V13.01,2013-02-26 01:34:00,
2013-02-25 20:35:00,36.2,25.2,30.12,ENE,72,4.0,5.0,64,0.00,,---,0.00,VWS V13.01,2013-02-26 01:35:00,
2013-02-25 20:36:00,36.2,25.2,30.13,ENE,67,0.0,5.0,64,0.00,,---,0.00,VWS V13.01,2013-02-26 01:36:00,
2013-02-25 20:37:00,36.2,25.2,30.13,ENE,68,1.0,5.0,64,0.00,,---,0.00,VWS V13.01,2013-02-26 01:37:00,
2013-02-25 20:39:00,36.2,25.2,30.13,ENE,75,0.0,5.0,64,0.00,,---,0.00,VWS V13.01,2013-02-26 01:39:00,
2013-02-25 20:40:00,36.2,25.2,30.13,ENE,74,0.0,5.0,64,0.00,,---,0.00,VWS V13.01,2013-02-26 01:40:00,
2013-02-25 20:41:00,36.2,25.2,30.13,ENE,74,0.0,5.0,64,0.00,,---,0.00,VWS V13.01,2013-02-26 01:41:00,
2013-02-25 20:42:00,36.2,25.2,30.13,ENE,74,0.0,5.0,64,0.00,,---,0.00,VWS V13.01,2013-02-26 01:42:00,
2013-02-25 20:44:00,36.2,25.2,30.13,ENE,67,0.0,5.0,64,0.00,,---,0.00,VWS V13.01,2013-02-26 01:44:00,
2013-02-25 20:45:00,36.2,25.2,30.13,ENE,67,1.0,5.0,64,0.00,,---,0.00,VWS V13.01,2013-02-26 01:45:00,
2013-02-25 20:46:00,36.2,25.2,30.13,ENE,67,0.0,5.0,64,0.00,,---,0.00,VWS V13.01,2013-02-26 01:46:00,
2013-02-25 20:47:00,36.2,25.2,30.13,ENE,67,1.0,5.0,64,0.00,,---,0.00,VWS V13.01,2013-02-26 01:47:00,
2013-02-25 20:49:00,36.2,25.2,30.13,ENE,67,0.0,5.0,64,0.00,,---,0.00,VWS V13.01,2013-02-26 01:49:00,
2013-02-25 20:50:00,36.2,25.2,30.13,ENE,67,1.0,5.0,64,0.00,,---,0.00,VWS V13.01,2013-02-26 01:50:00,
2013-02-25 20:51:00,36.2,25.2,30.13,ENE,67,0.0,5.0,64,0.00,,---,0.00,VWS V13.01,2013-02-26 01:51:00,
2013-02-25 20:53:00,36.2,25.2,30.13,ENE,66,0.0,5.0,64,0.00,,---,0.00,VWS V13.01,2013-02-26 01:53:00,
2013-02-25 20:55:00,36.1,25.1,30.13,ENE,66,0.0,5.0,64,0.00,,---,0.00,VWS V13.01,2013-02-26 01:55:00,
2013-02-25 20:56:00,36.1,25.1,30.13,ENE,66,0.0,5.0,64,0.00,,---,0.00,VWS V13.01,2013-02-26 01:56:00,
2013-02-25 20:58:00,36.1,25.1,30.13,ENE,67,3.0,5.0,64,0.00,,---,0.00,VWS V13.01,2013-02-26 01:58:00,
2013-02-25 21:00:00,36.1,25.1,30.13,ENE,67,0.0,5.0,64,0.00,,---,0.00,VWS V13.01,2013-02-26 02:00:00,
2013-02-25 21:01:00,36.1,25.1,30.13,ENE,67,0.0,0.0,64,0.00,,---,0.00,VWS V13.01,2013-02-26 02:01:00,
2013-02-25 21:03:00,36.1,25.1,30.13,ENE,68,2.0,3.0,64,0.00,,---,0.00,VWS V13.01,2013-02-26 02:03:00,
2013-02-25 21:05:00,36.1,25.1,30.13,ENE,63,0.0,6.0,64,0.00,,---,0.00,VWS V13.01,2013-02-26 02:05:00,
2013-02-25 21:06:00,36.1,25.5,30.13,ENE,63,2.0,6.0,65,0.00,,---,0.00,VWS V13.01,2013-02-26 02:06:00,
2013-02-25 21:08:00,36.0,25.4,30.13,ENE,63,0.0,6.0,65,0.00,,---,0.00,VWS V13.01,2013-02-26 02:08:00,
2013-02-25 21:10:00,36.0,25.4,30.13,East,82,0.0,6.0,65,0.00,,---,0.00,VWS V13.01,2013-02-26 02:10:00,
2013-02-25 21:11:00,36.0,25.4,30.13,East,80,0.0,6.0,65,0.00,,---,0.00,VWS V13.01,2013-02-26 02:11:00,
2013-02-25 21:13:00,36.0,25.4,30.14,East,81,0.0,6.0,65,0.00,,---,0.00,VWS V13.01,2013-02-26 02:13:00,
2013-02-25 21:15:00,36.0,25.4,30.14,East,82,0.0,6.0,65,0.00,,---,0.00,VWS V13.01,2013-02-26 02:15:00,
2013-02-25 21:16:00,35.9,25.3,30.14,East,82,0.0,6.0,65,0.00,,---,0.00,VWS V13.01,2013-02-26 02:16:00,
2013-02-25 21:18:00,35.9,25.3,30.14,East,88,2.0,6.0,65,0.00,,---,0.00,VWS V13.01,2013-02-26 02:18:00,
2013-02-25 21:20:00,35.9,25.3,30.14,ENE,57,0.0,6.0,65,0.00,,---,0.00,VWS V13.01,2013-02-26 02:20:00,
2013-02-25 21:21:00,35.9,25.3,30.14,ENE,57,0.0,6.0,65,0.00,,---,0.00,VWS V13.01,2013-02-26 02:21:00,
2013-02-25 21:23:00,35.9,25.3,30.13,NE,55,0.0,6.0,65,0.00,,---,0.00,VWS V13.01,2013-02-26 02:23:00,
2013-02-25 21:25:00,35.9,25.3,30.13,ENE,68,0.0,6.0,65,0.00,,---,0.00,VWS V13.01,2013-02-26 02:25:00,
2013-02-25 21:26:00,35.8,25.2,30.13,NE,49,2.0,6.0,65,0.00,,---,0.00,VWS V13.01,2013-02-26 02:26:00,
2013-02-25 21:28:00,35.8,25.2,30.12,ESE,110,5.0,6.0,65,0.00,,---,0.00,VWS V13.01,2013-02-26 02:28:00,
2013-02-25 21:30:00,35.8,25.2,30.12,East,98,0.0,6.0,65,0.00,,---,0.00,VWS V13.01,2013-02-26 02:30:00,
2013-02-25 21:31:00,35.8,25.2,30.12,East,95,0.0,0.0,65,0.00,,---,0.00,VWS V13.01,2013-02-26 02:31:00,
2013-02-25 21:34:00,35.8,25.2,30.12,East,84,3.0,3.0,65,0.00,,---,0.00,VWS V13.01,2013-02-26 02:34:00,
2013-02-25 21:35:00,35.8,25.2,30.12,East,80,0.0,3.0,65,0.00,,---,0.00,VWS V13.01,2013-02-26 02:35:00,
2013-02-25 21:36:00,35.8,25.2,30.12,ENE,69,3.0,4.0,65,0.00,,---,0.00,VWS V13.01,2013-02-26 02:36:00,
2013-02-25 21:39:00,35.8,25.2,30.12,ENE,67,3.0,5.0,65,0.00,,---,0.00,VWS V13.01,2013-02-26 02:39:00,
2013-02-25 21:40:00,35.7,25.1,30.12,ENE,59,3.0,5.0,65,0.00,,---,0.00,VWS V13.01,2013-02-26 02:40:00,
2013-02-25 21:41:00,35.7,25.1,30.12,ENE,69,3.0,5.0,65,0.00,,---,0.00,VWS V13.01,2013-02-26 02:41:00,
2013-02-25 21:44:00,35.7,25.1,30.12,NNE,30,5.0,5.0,65,0.00,,---,0.00,VWS V13.01,2013-02-26 02:44:00,
2013-02-25 21:45:00,35.7,25.1,30.12,NE,53,2.0,5.0,65,0.00,,---,0.00,VWS V13.01,2013-02-26 02:45:00,
2013-02-25 21:46:00,35.7,25.1,30.12,NE,53,0.0,5.0,65,0.00,,---,0.00,VWS V13.01,2013-02-26 02:46:00,
2013-02-25 21:49:00,35.7,25.1,30.13,NE,51,0.0,5.0,65,0.00,,---,0.00,VWS V13.01,2013-02-26 02:49:00,
2013-02-25 21:50:00,35.7,25.1,30.12,NE,51,0.0,5.0,65,0.00,,---,0.00,VWS V13.01,2013-02-26 02:50:00,
2013-02-25 21:51:00,35.7,25.1,30.12,NE,51,2.0,5.0,65,0.00,,---,0.00,VWS V13.01,2013-02-26 02:51:00,
2013-02-25 21:54:00,35.7,25.1,30.12,NE,51,0.0,5.0,65,0.00,,---,0.00,VWS V13.01,2013-02-26 02:54:00,
2013-02-25 21:56:00,35.7,25.1,30.13,NE,51,0.0,5.0,65,0.00,,---,0.00,VWS V13.01,2013-02-26 02:56:00,
2013-02-25 21:57:00,35.7,25.1,30.12,NE,51,0.0,5.0,65,0.00,,---,0.00,VWS V13.01,2013-02-26 02:57:00,
2013-02-25 21:59:00,35.7,25.1,30.12,NE,51,0.0,5.0,65,0.00,,---,0.00,VWS V13.01,2013-02-26 02:59:00,
2013-02-25 22:01:00,35.7,25.1,30.12,NE,51,0.0,5.0,65,0.00,,---,0.00,VWS V13.01,2013-02-26 03:01:00,
2013-02-25 22:02:00,35.7,25.1,30.12,NE,51,3.0,4.0,65,0.00,,---,0.00,VWS V13.01,2013-02-26 03:02:00,
2013-02-25 22:04:00,35.7,25.1,30.12,NE,51,0.0,4.0,65,0.00,,---,0.00,VWS V13.01,2013-02-26 03:04:00,
2013-02-25 22:06:00,35.6,25.0,30.13,NE,51,0.0,4.0,65,0.00,,---,0.00,VWS V13.01,2013-02-26 03:06:00,
2013-02-25 22:07:00,35.6,25.0,30.13,NE,51,0.0,4.0,65,0.00,,---,0.00,VWS V13.01,2013-02-26 03:07:00,
2013-02-25 22:09:00,35.6,25.4,30.13,NE,51,0.0,4.0,66,0.00,,---,0.00,VWS V13.01,2013-02-26 03:09:00,
2013-02-25 22:11:00,35.6,25.4,30.13,NE,51,0.0,4.0,66,0.00,,---,0.00,VWS V13.01,2013-02-26 03:11:00,
2013-02-25 22:12:00,35.6,25.4,30.13,NE,51,0.0,4.0,66,0.00,,---,0.00,VWS V13.01,2013-02-26 03:12:00,
2013-02-25 22:14:00,35.6,25.4,30.13,NE,51,0.0,4.0,66,0.00,,---,0.00,VWS V13.01,2013-02-26 03:14:00,
2013-02-25 22:16:00,35.6,25.0,30.13,NE,55,2.0,4.0,65,0.00,,---,0.00,VWS V13.01,2013-02-26 03:16:00,
2013-02-25 22:17:00,35.5,24.9,30.13,NE,56,2.0,4.0,65,0.00,,---,0.00,VWS V13.01,2013-02-26 03:17:00,
2013-02-25 22:20:00,35.5,24.9,30.13,NE,56,0.0,4.0,65,0.00,,---,0.00,VWS V13.01,2013-02-26 03:20:00,
2013-02-25 22:21:00,35.5,25.3,30.13,NE,56,0.0,4.0,66,0.00,,---,0.00,VWS V13.01,2013-02-26 03:21:00,
2013-02-25 22:22:00,35.5,25.3,30.13,ENE,58,2.0,4.0,66,0.00,,---,0.00,VWS V13.01,2013-02-26 03:22:00,
2013-02-25 22:24:00,35.5,25.3,30.13,ENE,60,3.0,5.0,66,0.00,,---,0.00,VWS V13.01,2013-02-26 03:24:00,
2013-02-25 22:26:00,35.5,25.3,30.13,ENE,60,0.0,5.0,66,0.00,,---,0.00,VWS V13.01,2013-02-26 03:26:00,
2013-02-25 22:27:00,35.5,25.3,30.13,ENE,60,0.0,5.0,66,0.00,,---,0.00,VWS V13.01,2013-02-26 03:27:00,
2013-02-25 22:30:00,35.5,25.3,30.13,ENE,60,0.0,5.0,66,0.00,,---,0.00,VWS V13.01,2013-02-26 03:30:00,
2013-02-25 22:31:00,35.4,25.2,30.13,ENE,60,0.0,3.0,66,0.00,,---,0.00,VWS V13.01,2013-02-26 03:31:00,
2013-02-25 22:32:00,35.4,25.2,30.13,ENE,60,0.0,3.0,66,0.00,,---,0.00,VWS V13.01,2013-02-26 03:32:00,
2013-02-25 22:35:00,35.4,25.2,30.13,ENE,60,0.0,4.0,66,0.00,,---,0.00,VWS V13.01,2013-02-26 03:35:00,
2013-02-25 22:36:00,35.4,25.2,30.13,ENE,60,0.0,4.0,66,0.00,,---,0.00,VWS V13.01,2013-02-26 03:36:00,
2013-02-25 22:37:00,35.4,25.2,30.13,ENE,60,0.0,4.0,66,0.00,,---,0.00,VWS V13.01,2013-02-26 03:37:00,
2013-02-25 22:40:00,35.4,25.2,30.13,ENE,60,0.0,4.0,66,0.00,,---,0.00,VWS V13.01,2013-02-26 03:40:00,
2013-02-25 22:42:00,35.4,25.2,30.13,ENE,59,0.0,4.0,66,0.00,,---,0.00,VWS V13.01,2013-02-26 03:42:00,
2013-02-25 22:45:00,35.3,25.1,30.13,ENE,59,3.0,4.0,66,0.00,,---,0.00,VWS V13.01,2013-02-26 03:45:00,
2013-02-25 22:47:00,35.3,25.1,30.13,ENE,59,3.0,4.0,66,0.00,,---,0.00,VWS V13.01,2013-02-26 03:47:00,
2013-02-25 22:51:00,35.3,25.1,30.12,NE,51,0.0,5.0,66,0.00,,---,0.00,VWS V13.01,2013-02-26 03:51:00,
2013-02-25 22:52:00,35.3,25.1,30.13,NE,51,1.0,5.0,66,0.00,,---,0.00,VWS V13.01,2013-02-26 03:52:00,
2013-02-25 22:56:00,35.2,25.0,30.12,NE,52,3.0,5.0,66,0.00,,---,0.00,VWS V13.01,2013-02-26 03:56:00,
2013-02-25 22:57:00,35.2,25.0,30.12,NE,52,0.0,5.0,66,0.00,,---,0.00,VWS V13.01,2013-02-26 03:57:00,
2013-02-25 23:01:00,35.2,25.0,30.12,NE,52,2.0,5.0,66,0.00,,---,0.00,VWS V13.01,2013-02-26 04:01:00,
2013-02-25 23:02:00,35.2,25.0,30.12,NE,52,0.0,2.0,66,0.00,,---,0.00,VWS V13.01,2013-02-26 04:02:00,
2013-02-25 23:03:00,35.2,25.4,30.12,NE,52,0.0,2.0,67,0.00,,---,0.00,VWS V13.01,2013-02-26 04:03:00,
2013-02-25 23:06:00,35.2,25.4,30.12,ENE,71,3.0,4.0,67,0.00,,---,0.00,VWS V13.01,2013-02-26 04:06:00,
2013-02-25 23:07:00,35.1,25.3,30.12,ENE,68,0.0,4.0,67,0.00,,---,0.00,VWS V13.01,2013-02-26 04:07:00,
2013-02-25 23:08:00,35.2,25.4,30.12,ENE,68,0.0,4.0,67,0.00,,---,0.00,VWS V13.01,2013-02-26 04:08:00,
2013-02-25 23:11:00,35.1,25.3,30.12,ENE,61,0.0,5.0,67,0.00,,---,0.00,VWS V13.01,2013-02-26 04:11:00,
2013-02-25 23:12:00,35.1,25.3,30.12,ENE,61,0.0,5.0,67,0.00,,---,0.00,VWS V13.01,2013-02-26 04:12:00,
2013-02-25 23:13:00,35.1,25.3,30.12,ENE,61,0.0,5.0,67,0.00,,---,0.00,VWS V13.01,2013-02-26 04:13:00,
2013-02-25 23:16:00,35.1,25.3,30.12,ENE,61,0.0,5.0,67,0.00,,---,0.00,VWS V13.01,2013-02-26 04:16:00,
2013-02-25 23:17:00,35.1,25.3,30.12,ENE,61,0.0,5.0,67,0.00,,---,0.00,VWS V13.01,2013-02-26 04:17:00,
2013-02-25 23:18:00,35.1,25.3,30.12,ENE,61,0.0,5.0,67,0.00,,---,0.00,VWS V13.01,2013-02-26 04:18:00,
2013-02-25 23:21:00,35.0,25.2,30.12,ENE,61,0.0,5.0,67,0.00,,---,0.00,VWS V13.01,2013-02-26 04:21:00,
2013-02-25 23:22:00,35.0,25.2,30.12,ENE,61,0.0,5.0,67,0.00,,---,0.00,VWS V13.01,2013-02-26 04:22:00,
2013-02-25 23:23:00,35.0,25.2,30.12,ENE,61,0.0,5.0,67,0.00,,---,0.00,VWS V13.01,2013-02-26 04:23:00,
2013-02-25 23:26:00,35.0,25.2,30.12,ENE,61,0.0,5.0,67,0.00,,---,0.00,VWS V13.01,2013-02-26 04:26:00,
2013-02-25 23:27:00,35.0,25.2,30.12,ENE,61,0.0,5.0,67,0.00,,---,0.00,VWS V13.01,2013-02-26 04:27:00,
2013-02-25 23:28:00,35.0,25.2,30.12,ENE,61,0.0,5.0,67,0.00,,---,0.00,VWS V13.01,2013-02-26 04:28:00,
2013-02-25 23:31:00,34.9,25.1,30.12,ENE,61,0.0,0.0,67,0.00,,---,0.00,VWS V13.01,2013-02-26 04:31:00,
2013-02-25 23:32:00,34.9,25.1,30.12,ENE,60,1.0,1.0,67,0.00,,---,0.00,VWS V13.01,2013-02-26 04:32:00,
2013-02-25 23:33:00,34.9,25.1,30.12,ENE,61,2.0,5.0,67,0.00,,---,0.00,VWS V13.01,2013-02-26 04:33:00,
2013-02-25 23:36:00,34.9,25.1,30.11,ENE,76,2.0,6.0,67,0.00,,---,0.00,VWS V13.01,2013-02-26 04:36:00,
2013-02-25 23:37:00,34.9,25.1,30.12,ENE,63,3.0,6.0,67,0.00,,---,0.00,VWS V13.01,2013-02-26 04:37:00,
2013-02-25 23:38:00,34.9,25.1,30.12,ENE,67,2.0,6.0,67,0.00,,---,0.00,VWS V13.01,2013-02-26 04:38:00,
2013-02-25 23:41:00,34.9,25.1,30.12,ENE,71,0.0,6.0,67,0.00,,---,0.00,VWS V13.01,2013-02-26 04:41:00,
2013-02-25 23:42:00,34.9,25.1,30.12,ENE,69,0.0,6.0,67,0.00,,---,0.00,VWS V13.01,2013-02-26 04:42:00,
2013-02-25 23:43:00,34.9,25.1,30.12,ENE,69,0.0,6.0,67,0.00,,---,0.00,VWS V13.01,2013-02-26 04:43:00,
2013-02-25 23:47:00,34.9,25.1,30.12,ENE,57,4.0,6.0,67,0.00,,---,0.00,VWS V13.01,2013-02-26 04:47:00,
2013-02-25 23:48:00,34.9,25.1,30.12,NE,56,0.0,6.0,67,0.00,,---,0.00,VWS V13.01,2013-02-26 04:48:00,
2013-02-25 23:52:00,35.0,25.2,30.12,NE,44,2.0,6.0,67,0.00,,---,0.00,VWS V13.01,2013-02-26 04:52:00,
2013-02-25 23:53:00,35.0,25.2,30.12,NE,53,0.0,6.0,67,0.00,,---,0.00,VWS V13.01,2013-02-26 04:53:00,
2013-02-25 23:57:00,35.0,25.2,30.12,NE,52,2.0,6.0,67,0.00,,---,0.00,VWS V13.01,2013-02-26 04:57:00,
2013-02-25 23:58:00,35.1,25.6,30.12,NE,47,0.0,6.0,68,0.00,,---,0.00,VWS V13.01,2013-02-26 04:58:00,